GEFSSGP_prec_meanprecacc_066.txt.gz
Total_Precipitation_Accumulation
0.00 0.00 0.00 0.00 0.00 0.00 0.00 0.00 0.00 0.00 0.00 0.00 0.00 0.00 0.00 0.00 0.00 0.00 0.00 0.00 0.00 0.00 0.01 0.04 0.07 0.12 0.11 0.08 0.05 0.02 0.01 0.01 0.01 0.02 0.04 0.06 0.04 0.03 0.02 0.03 0.04 0.05 0.08 0.12 0.18 0.21 0.22 0.19 0.16
0.00 0.00 0.00 0.00 0.00 0.00 0.00 0.00 0.00 0.00 0.00 0.00 0.00 0.00 0.00 0.00 0.00 0.00 0.00 0.00 0.00 0.00 0.01 0.02 0.05 0.09 0.09 0.07 0.05 0.02 0.01 0.01 0.01 0.02 0.05 0.07 0.05 0.03 0.03 0.03 0.03 0.05 0.07 0.10 0.13 0.12 0.09 0.06 0.06
0.00 0.00 0.00 0.00 0.00 0.00 0.00 0.00 0.00 0.00 0.00 0.00 0.00 0.00 0.00 0.00 0.00 0.00 0.00 0.00 0.00 0.00 0.00 0.02 0.03 0.07 0.07 0.06 0.04 0.02 0.01 0.01 0.01 0.02 0.05 0.08 0.09 0.06 0.03 0.03 0.03 0.03 0.04 0.05 0.06 0.04 0.02 0.01 0.01
0.00 0.00 0.00 0.00 0.00 0.00 0.00 0.00 0.00 0.00 0.00 0.00 0.00 0.00 0.00 0.00 0.00 0.00 0.00 0.00 0.00 0.00 0.00 0.02 0.03 0.05 0.05 0.05 0.03 0.02 0.01 0.01 0.01 0.02 0.03 0.07 0.10 0.09 0.05 0.02 0.01 0.02 0.02 0.02 0.02 0.01 0.00 0.00 0.00
0.00 0.00 0.00 0.00 0.00 0.00 0.00 0.00 0.00 0.00 0.00 0.00 0.00 0.00 0.00 0.00 0.00 0.00 0.00 0.00 0.00 0.00 0.00 0.02 0.03 0.04 0.04 0.04 0.03 0.02 0.01 0.01 0.01 0.01 0.02 0.04 0.08 0.09 0.06 0.02 0.01 0.01 0.01 0.01 0.01 0.00 0.00 0.00 0.00
0.00 0.00 0.00 0.00 0.00 0.00 0.00 0.00 0.00 0.00 0.00 0.00 0.00 0.00 0.00 0.00 0.00 0.00 0.00 0.00 0.00 0.00 0.01 0.02 0.04 0.04 0.04 0.04 0.03 0.02 0.01 0.01 0.01 0.01 0.01 0.02 0.05 0.07 0.06 0.02 0.01 0.01 0.01 0.01 0.01 0.01 0.01 0.00 0.00
0.00 0.00 0.00 0.00 0.00 0.00 0.00 0.00 0.00 0.00 0.00 0.00 0.00 0.00 0.00 0.00 0.00 0.00 0.00 0.01 0.01 0.01 0.01 0.01 0.03 0.04 0.04 0.04 0.03 0.02 0.02 0.01 0.01 0.00 0.01 0.01 0.02 0.04 0.04 0.02 0.01 0.01 0.01 0.01 0.02 0.02 0.02 0.02 0.01
0.00 0.00 0.00 0.00 0.00 0.00 0.00 0.00 0.00 0.00 0.00 0.00 0.00 0.00 0.00 0.00 0.00 0.01 0.01 0.01 0.02 0.02 0.01 0.01 0.02 0.03 0.04 0.04 0.03 0.03 0.02 0.01 0.01 0.01 0.01 0.00 0.00 0.01 0.02 0.01 0.01 0.01 0.01 0.01 0.02 0.02 0.02 0.02 0.01
0.00 0.00 0.00 0.00 0.00 0.00 0.00 0.00 0.00 0.00 0.00 0.00 0.00 0.00 0.00 0.00 0.01 0.01 0.02 0.02 0.03 0.03 0.02 0.01 0.01 0.02 0.03 0.03 0.02 0.02 0.02 0.01 0.01 0.00 0.00 0.00 0.00 0.00 0.01 0.00 0.00 0.00 0.00 0.01 0.01 0.02 0.02 0.01 0.01
0.00 0.00 0.00 0.00 0.00 0.00 0.00 0.00 0.00 0.00 0.00 0.00 0.00 0.00 0.00 0.00 0.01 0.01 0.01 0.01 0.02 0.03 0.03 0.01 0.01 0.01 0.02 0.02 0.02 0.02 0.02 0.01 0.00 0.00 0.00 0.00 0.00 0.00 0.00 0.00 0.00 0.00 0.00 0.00 0.00 0.01 0.01 0.00 0.00
0.00 0.00 0.00 0.00 0.00 0.00 0.00 0.00 0.00 0.00 0.00 0.00 0.00 0.00 0.00 0.00 0.01 0.01 0.01 0.01 0.01 0.01 0.02 0.01 0.01 0.01 0.01 0.02 0.02 0.02 0.02 0.01 0.00 0.00 0.00 0.00 0.00 0.00 0.00 0.00 0.00 0.00 0.00 0.00 0.00 0.00 0.00 0.00 0.00
0.00 0.00 0.00 0.00 0.00 0.00 0.00 0.00 0.00 0.00 0.00 0.00 0.00 0.00 0.00 0.01 0.01 0.01 0.01 0.01 0.01 0.01 0.01 0.01 0.01 0.01 0.01 0.01 0.01 0.01 0.01 0.01 0.00 0.00 0.00 0.00 0.00 0.00 0.00 0.00 0.00 0.00 0.00 0.00 0.00 0.00 0.00 0.00 0.00
0.01 0.00 0.00 0.00 0.00 0.00 0.00 0.00 0.00 0.00 0.00 0.00 0.00 0.00 0.00 0.00 0.01 0.01 0.01 0.01 0.01 0.01 0.01 0.01 0.01 0.01 0.01 0.01 0.01 0.01 0.01 0.00 0.00 0.00 0.00 0.00 0.00 0.00 0.00 0.00 0.00 0.00 0.00 0.00 0.00 0.00 0.00 0.00 0.00
0.01 0.01 0.00 0.00 0.00 0.00 0.00 0.00 0.00 0.00 0.00 0.00 0.00 0.00 0.00 0.00 0.00 0.00 0.00 0.00 0.01 0.01 0.01 0.02 0.02 0.03 0.02 0.01 0.01 0.01 0.01 0.01 0.01 0.01 0.01 0.00 0.00 0.00 0.00 0.00 0.00 0.00 0.00 0.00 0.00 0.00 0.00 0.00 0.00
0.01 0.02 0.01 0.00 0.00 0.00 0.00 0.00 0.00 0.00 0.00 0.00 0.00 0.00 0.00 0.00 0.00 0.00 0.00 0.00 0.00 0.01 0.02 0.02 0.03 0.04 0.03 0.02 0.02 0.02 0.02 0.02 0.02 0.02 0.01 0.01 0.01 0.00 0.00 0.00 0.00 0.00 0.00 0.00 0.00 0.00 0.00 0.00 0.00
0.07 0.07 0.03 0.00 0.00 0.00 0.01 0.00 0.00 0.00 0.00 0.00 0.00 0.00 0.00 0.00 0.00 0.00 0.00 0.00 0.00 0.00 0.01 0.01 0.03 0.04 0.04 0.04 0.05 0.05 0.05 0.05 0.05 0.06 0.04 0.03 0.02 0.01 0.01 0.01 0.00 0.00 0.00 0.00 0.00 0.00 0.00 0.00 0.00
0.13 0.07 0.02 0.00 0.00 0.00 0.01 0.00 0.00 0.00 0.00 0.00 0.00 0.00 0.00 0.00 0.00 0.00 0.00 0.00 0.00 0.00 0.00 0.00 0.01 0.02 0.04 0.07 0.10 0.12 0.14 0.12 0.12 0.10 0.07 0.06 0.05 0.04 0.03 0.02 0.01 0.00 0.00 0.00 0.00 0.00 0.00 0.00 0.00
0.05 0.02 0.01 0.01 0.00 0.01 0.01 0.00 0.00 0.00 0.00 0.00 0.00 0.00 0.00 0.00 0.00 0.00 0.00 0.00 0.00 0.00 0.00 0.00 0.00 0.02 0.05 0.11 0.16 0.17 0.18 0.15 0.15 0.13 0.12 0.12 0.09 0.07 0.06 0.04 0.02 0.01 0.00 0.00 0.00 0.00 0.00 0.00 0.00
0.04 0.04 0.03 0.01 0.00 0.01 0.01 0.00 0.00 0.00 0.00 0.00 0.00 0.00 0.00 0.00 0.00 0.00 0.00 0.00 0.00 0.00 0.00 0.00 0.00 0.01 0.04 0.07 0.09 0.09 0.12 0.15 0.16 0.16 0.19 0.20 0.17 0.15 0.11 0.07 0.05 0.02 0.01 0.01 0.01 0.01 0.01 0.00 0.00
0.08 0.07 0.05 0.02 0.01 0.02 0.01 0.00 0.00 0.00 0.00 0.00 0.00 0.00 0.00 0.00 0.00 0.00 0.00 0.00 0.00 0.00 0.00 0.00 0.00 0.00 0.01 0.01 0.05 0.09 0.16 0.21 0.22 0.23 0.22 0.20 0.20 0.19 0.15 0.09 0.08 0.06 0.03 0.01 0.01 0.01 0.01 0.01 0.01
0.13 0.09 0.06 0.04 0.03 0.03 0.03 0.02 0.00 0.00 0.00 0.00 0.00 0.00 0.00 0.00 0.00 0.00 0.00 0.00 0.00 0.00 0.00 0.00 0.00 0.00 0.01 0.03 0.08 0.14 0.19 0.20 0.18 0.14 0.14 0.16 0.19 0.22 0.19 0.16 0.13 0.10 0.08 0.05 0.04 0.04 0.04 0.05 0.04
0.17 0.08 0.07 0.07 0.09 0.08 0.05 0.04 0.00 0.00 0.00 0.00 0.00 0.00 0.00 0.00 0.00 0.00 0.00 0.00 0.00 0.00 0.00 0.00 0.00 0.00 0.01 0.03 0.04 0.07 0.10 0.11 0.11 0.13 0.17 0.20 0.21 0.22 0.22 0.21 0.19 0.17 0.14 0.12 0.11 0.11 0.10 0.09 0.08
0.15 0.09 0.11 0.13 0.16 0.16 0.09 0.06 0.01 0.00 0.00 0.00 0.00 0.00 0.00 0.00 0.00 0.00 0.00 0.00 0.00 0.00 0.00 0.00 0.00 0.00 0.00 0.02 0.02 0.05 0.07 0.09 0.12 0.15 0.17 0.19 0.20 0.21 0.22 0.23 0.23 0.22 0.23 0.24 0.24 0.22 0.20 0.18 0.16
0.20 0.22 0.27 0.28 0.35 0.34 0.11 0.07 0.02 0.00 0.00 0.00 0.00 0.00 0.00 0.00 0.00 0.00 0.00 0.00 0.00 0.00 0.00 0.00 0.00 0.00 0.00 0.01 0.01 0.03 0.05 0.07 0.10 0.12 0.14 0.17 0.20 0.21 0.21 0.23 0.25 0.28 0.29 0.29 0.30 0.31 0.30 0.28 0.26
0.39 0.59 0.76 0.64 0.54 0.28 0.06 0.06 0.02 0.00 0.00 0.00 0.00 0.00 0.00 0.00 0.00 0.00 0.00 0.00 0.00 0.00 0.00 0.00 0.00 0.00 0.01 0.02 0.02 0.02 0.05 0.08 0.10 0.13 0.15 0.16 0.17 0.16 0.18 0.23 0.27 0.32 0.35 0.37 0.35 0.33 0.31 0.31 0.32
0.43 0.56 0.65 0.46 0.26 0.10 0.04 0.03 0.01 0.00 0.00 0.00 0.00 0.00 0.00 0.00 0.00 0.00 0.00 0.00 0.00 0.00 0.00 0.00 0.00 0.00 0.01 0.02 0.02 0.02 0.03 0.05 0.07 0.09 0.11 0.14 0.17 0.21 0.25 0.26 0.29 0.31 0.33 0.33 0.31 0.31 0.30 0.30 0.32
0.46 0.44 0.38 0.46 0.29 0.14 0.06 0.02 0.00 0.00 0.00 0.00 0.00 0.00 0.00 0.00 0.00 0.00 0.00 0.00 0.00 0.00 0.00 0.00 0.00 0.01 0.02 0.02 0.03 0.02 0.03 0.04 0.06 0.07 0.08 0.11 0.14 0.17 0.19 0.22 0.24 0.24 0.25 0.24 0.25 0.24 0.23 0.23 0.23
0.43 0.38 0.52 0.76 0.53 0.25 0.06 0.01 0.00 0.00 0.00 0.00 0.00 0.00 0.00 0.00 0.00 0.00 0.00 0.00 0.00 0.00 0.00 0.01 0.01 0.01 0.02 0.03 0.03 0.02 0.03 0.04 0.06 0.06 0.06 0.07 0.09 0.11 0.13 0.16 0.16 0.17 0.17 0.16 0.16 0.16 0.15 0.15 0.16
0.42 0.52 0.62 0.62 0.40 0.31 0.14 0.02 0.01 0.01 0.01 0.01 0.00 0.00 0.00 0.00 0.00 0.00 0.00 0.00 0.00 0.01 0.01 0.01 0.02 0.02 0.03 0.03 0.03 0.03 0.03 0.04 0.05 0.06 0.06 0.07 0.08 0.08 0.10 0.11 0.12 0.12 0.12 0.11 0.10 0.10 0.10 0.11 0.12
0.36 0.32 0.43 0.62 0.42 0.28 0.19 0.05 0.01 0.02 0.02 0.02 0.02 0.02 0.01 0.01 0.00 0.00 0.00 0.00 0.01 0.02 0.02 0.02 0.03 0.04 0.04 0.04 0.04 0.04 0.05 0.05 0.05 0.06 0.06 0.07 0.07 0.07 0.07 0.07 0.08 0.08 0.08 0.07 0.07 0.07 0.07 0.08 0.10

GEFSSGP_prec_meanprecacc_072.txt.gz
Total_Precipitation_Accumulation
0.00 0.00 0.00 0.00 0.00 0.00 0.00 0.00 0.00 0.00 0.00 0.00 0.00 0.00 0.00 0.00 0.00 0.00 0.00 0.00 0.00 0.00 0.01 0.04 0.07 0.12 0.11 0.09 0.06 0.02 0.01 0.01 0.02 0.03 0.05 0.06 0.04 0.03 0.03 0.03 0.05 0.06 0.10 0.15 0.23 0.24 0.23 0.19 0.16
0.00 0.00 0.00 0.00 0.00 0.00 0.00 0.00 0.00 0.00 0.00 0.00 0.00 0.00 0.00 0.00 0.00 0.00 0.00 0.00 0.00 0.00 0.01 0.02 0.05 0.09 0.10 0.08 0.05 0.02 0.01 0.01 0.01 0.02 0.06 0.08 0.05 0.03 0.04 0.04 0.04 0.06 0.09 0.13 0.16 0.13 0.09 0.06 0.06
0.00 0.00 0.00 0.00 0.00 0.00 0.00 0.00 0.00 0.00 0.00 0.00 0.00 0.00 0.00 0.00 0.00 0.00 0.00 0.00 0.00 0.00 0.00 0.02 0.04 0.07 0.08 0.07 0.05 0.02 0.01 0.01 0.01 0.02 0.05 0.08 0.09 0.06 0.04 0.03 0.04 0.05 0.06 0.07 0.07 0.04 0.02 0.01 0.01
0.00 0.00 0.00 0.00 0.00 0.00 0.00 0.00 0.00 0.00 0.00 0.00 0.00 0.00 0.00 0.00 0.00 0.00 0.00 0.00 0.00 0.00 0.00 0.02 0.03 0.05 0.06 0.06 0.04 0.02 0.02 0.01 0.01 0.02 0.03 0.07 0.11 0.10 0.05 0.02 0.02 0.02 0.03 0.03 0.03 0.01 0.00 0.00 0.00
0.00 0.01 0.01 0.00 0.00 0.00 0.00 0.00 0.00 0.00 0.00 0.00 0.00 0.00 0.00 0.00 0.00 0.00 0.00 0.00 0.00 0.00 0.00 0.02 0.04 0.05 0.05 0.05 0.04 0.03 0.02 0.01 0.01 0.01 0.02 0.05 0.09 0.10 0.07 0.02 0.01 0.01 0.01 0.02 0.01 0.00 0.00 0.00 0.00
0.01 0.01 0.01 0.00 0.00 0.00 0.00 0.00 0.00 0.00 0.00 0.00 0.00 0.00 0.00 0.00 0.00 0.00 0.00 0.00 0.00 0.00 0.01 0.02 0.05 0.05 0.05 0.05 0.04 0.03 0.02 0.01 0.01 0.01 0.01 0.03 0.05 0.08 0.06 0.02 0.01 0.01 0.01 0.01 0.01 0.01 0.01 0.00 0.00
0.01 0.01 0.01 0.00 0.00 0.00 0.00 0.00 0.00 0.00 0.00 0.00 0.00 0.00 0.00 0.00 0.00 0.00 0.00 0.01 0.01 0.01 0.01 0.02 0.04 0.06 0.06 0.05 0.04 0.03 0.02 0.01 0.01 0.01 0.01 0.01 0.02 0.04 0.05 0.03 0.02 0.02 0.02 0.02 0.02 0.02 0.02 0.02 0.01
0.00 0.01 0.01 0.00 0.00 0.00 0.00 0.00 0.00 0.00 0.00 0.00 0.00 0.00 0.01 0.00 0.00 0.01 0.01 0.01 0.02 0.02 0.01 0.01 0.02 0.04 0.05 0.05 0.04 0.03 0.02 0.01 0.01 0.01 0.01 0.00 0.00 0.01 0.02 0.01 0.01 0.01 0.01 0.01 0.02 0.02 0.02 0.02 0.02
0.01 0.01 0.01 0.00 0.00 0.00 0.00 0.00 0.00 0.00 0.00 0.00 0.00 0.00 0.01 0.00 0.01 0.01 0.02 0.02 0.03 0.03 0.02 0.01 0.02 0.03 0.03 0.04 0.03 0.03 0.02 0.01 0.01 0.01 0.00 0.00 0.00 0.00 0.01 0.00 0.00 0.01 0.01 0.01 0.01 0.02 0.02 0.01 0.01
0.02 0.01 0.00 0.00 0.00 0.00 0.00 0.00 0.00 0.00 0.00 0.00 0.00 0.00 0.00 0.00 0.01 0.01 0.01 0.02 0.02 0.03 0.03 0.02 0.01 0.02 0.03 0.03 0.03 0.03 0.02 0.01 0.00 0.00 0.00 0.00 0.00 0.00 0.00 0.00 0.00 0.00 0.00 0.00 0.01 0.01 0.01 0.00 0.00
0.01 0.00 0.00 0.00 0.00 0.00 0.00 0.00 0.00 0.00 0.00 0.00 0.00 0.00 0.00 0.00 0.01 0.01 0.01 0.01 0.01 0.02 0.02 0.02 0.01 0.01 0.01 0.02 0.02 0.02 0.02 0.01 0.01 0.00 0.00 0.00 0.00 0.00 0.00 0.00 0.00 0.00 0.00 0.00 0.00 0.00 0.00 0.00 0.00
0.00 0.00 0.00 0.00 0.00 0.00 0.00 0.00 0.00 0.00 0.00 0.00 0.00 0.00 0.00 0.01 0.01 0.01 0.01 0.01 0.01 0.01 0.01 0.01 0.01 0.01 0.01 0.01 0.01 0.01 0.01 0.01 0.01 0.00 0.00 0.00 0.00 0.00 0.00 0.00 0.00 0.00 0.00 0.00 0.00 0.00 0.00 0.00 0.00
0.01 0.00 0.00 0.00 0.00 0.00 0.00 0.00 0.00 0.00 0.00 0.00 0.00 0.00 0.00 0.00 0.01 0.01 0.01 0.01 0.01 0.01 0.01 0.01 0.02 0.02 0.01 0.01 0.01 0.01 0.01 0.00 0.00 0.00 0.00 0.00 0.00 0.00 0.00 0.00 0.00 0.00 0.00 0.00 0.00 0.00 0.00 0.00 0.00
0.01 0.01 0.01 0.00 0.00 0.00 0.00 0.00 0.00 0.00 0.00 0.00 0.00 0.00 0.00 0.00 0.00 0.00 0.00 0.01 0.01 0.01 0.01 0.02 0.02 0.03 0.02 0.01 0.01 0.01 0.01 0.01 0.01 0.01 0.01 0.00 0.00 0.00 0.00 0.00 0.00 0.00 0.00 0.00 0.00 0.00 0.00 0.00 0.00
0.02 0.04 0.02 0.00 0.00 0.00 0.00 0.00 0.00 0.00 0.00 0.00 0.00 0.00 0.00 0.00 0.00 0.00 0.00 0.00 0.01 0.01 0.02 0.02 0.04 0.04 0.03 0.02 0.02 0.02 0.02 0.02 0.02 0.02 0.01 0.01 0.01 0.00 0.00 0.00 0.00 0.00 0.00 0.00 0.00 0.00 0.00 0.00 0.00
0.10 0.10 0.05 0.01 0.00 0.00 0.01 0.00 0.00 0.00 0.00 0.00 0.00 0.00 0.00 0.00 0.00 0.00 0.00 0.00 0.00 0.01 0.01 0.01 0.03 0.04 0.04 0.04 0.05 0.05 0.05 0.05 0.05 0.06 0.04 0.03 0.02 0.01 0.01 0.01 0.00 0.00 0.00 0.00 0.00 0.00 0.00 0.00 0.00
0.18 0.10 0.03 0.01 0.00 0.00 0.01 0.00 0.00 0.00 0.00 0.00 0.00 0.00 0.00 0.00 0.00 0.00 0.00 0.00 0.00 0.00 0.00 0.01 0.01 0.02 0.04 0.07 0.10 0.12 0.14 0.12 0.12 0.10 0.07 0.06 0.05 0.04 0.03 0.02 0.01 0.00 0.00 0.00 0.00 0.00 0.00 0.00 0.00
0.07 0.03 0.02 0.01 0.00 0.01 0.01 0.00 0.00 0.00 0.00 0.00 0.00 0.00 0.00 0.00 0.00 0.00 0.00 0.00 0.00 0.00 0.00 0.00 0.01 0.02 0.05 0.11 0.16 0.17 0.18 0.15 0.15 0.13 0.12 0.12 0.09 0.08 0.06 0.04 0.02 0.01 0.00 0.00 0.00 0.00 0.00 0.00 0.00
0.05 0.04 0.03 0.01 0.00 0.01 0.01 0.00 0.00 0.00 0.00 0.00 0.00 0.00 0.00 0.00 0.00 0.00 0.00 0.00 0.00 0.00 0.00 0.00 0.01 0.02 0.04 0.08 0.10 0.10 0.12 0.15 0.17 0.16 0.20 0.20 0.17 0.15 0.11 0.07 0.05 0.03 0.01 0.01 0.01 0.01 0.01 0.01 0.00
0.10 0.08 0.06 0.03 0.01 0.02 0.01 0.00 0.00 0.00 0.00 0.00 0.00 0.00 0.00 0.00 0.00 0.00 0.00 0.00 0.00 0.00 0.00 0.00 0.00 0.01 0.01 0.02 0.06 0.10 0.16 0.21 0.22 0.23 0.22 0.20 0.20 0.20 0.15 0.10 0.08 0.06 0.04 0.02 0.02 0.02 0.02 0.01 0.01
0.15 0.11 0.07 0.05 0.03 0.03 0.03 0.02 0.00 0.00 0.00 0.00 0.00 0.00 0.00 0.00 0.00 0.00 0.00 0.00 0.00 0.00 0.00 0.00 0.00 0.00 0.01 0.03 0.09 0.15 0.20 0.20 0.19 0.14 0.14 0.16 0.20 0.22 0.20 0.17 0.14 0.11 0.09 0.06 0.06 0.05 0.05 0.05 0.04
0.21 0.09 0.09 0.09 0.10 0.08 0.05 0.04 0.00 0.00 0.00 0.00 0.00 0.00 0.00 0.00 0.00 0.00 0.00 0.00 0.00 0.00 0.00 0.00 0.00 0.00 0.01 0.04 0.05 0.08 0.10 0.11 0.11 0.13 0.17 0.20 0.21 0.23 0.23 0.22 0.20 0.19 0.16 0.14 0.14 0.14 0.13 0.12 0.10
0.21 0.12 0.13 0.15 0.18 0.17 0.09 0.06 0.01 0.00 0.00 0.00 0.00 0.00 0.00 0.00 0.00 0.00 0.00 0.00 0.00 0.00 0.00 0.00 0.00 0.00 0.00 0.02 0.02 0.05 0.08 0.10 0.12 0.15 0.17 0.19 0.20 0.21 0.23 0.24 0.25 0.24 0.25 0.27 0.28 0.27 0.25 0.24 0.21
0.27 0.27 0.30 0.31 0.39 0.36 0.12 0.07 0.02 0.00 0.00 0.00 0.00 0.00 0.00 0.00 0.00 0.00 0.00 0.00 0.00 0.00 0.00 0.00 0.00 0.00 0.00 0.01 0.01 0.03 0.05 0.08 0.10 0.12 0.14 0.18 0.21 0.22 0.23 0.25 0.27 0.31 0.32 0.34 0.36 0.37 0.38 0.38 0.35
0.49 0.67 0.83 0.70 0.58 0.30 0.07 0.06 0.02 0.00 0.00 0.00 0.00 0.00 0.00 0.00 0.00 0.00 0.00 0.00 0.00 0.00 0.00 0.00 0.00 0.00 0.01 0.02 0.02 0.02 0.05 0.08 0.10 0.13 0.15 0.17 0.17 0.17 0.20 0.25 0.30 0.35 0.39 0.42 0.42 0.40 0.40 0.43 0.45
0.50 0.62 0.71 0.50 0.27 0.10 0.05 0.04 0.01 0.00 0.00 0.00 0.00 0.00 0.00 0.00 0.00 0.00 0.00 0.00 0.00 0.00 0.00 0.00 0.00 0.00 0.01 0.02 0.02 0.02 0.03 0.05 0.07 0.09 0.11 0.14 0.17 0.22 0.26 0.28 0.31 0.34 0.37 0.38 0.38 0.39 0.40 0.43 0.46
0.49 0.48 0.41 0.48 0.30 0.14 0.06 0.02 0.00 0.00 0.00 0.00 0.00 0.00 0.00 0.00 0.00 0.00 0.00 0.00 0.00 0.00 0.00 0.00 0.00 0.01 0.02 0.02 0.03 0.02 0.03 0.04 0.06 0.07 0.08 0.11 0.14 0.17 0.20 0.23 0.25 0.26 0.28 0.29 0.31 0.33 0.33 0.35 0.37
0.45 0.41 0.54 0.77 0.54 0.26 0.07 0.01 0.00 0.00 0.00 0.00 0.00 0.00 0.00 0.00 0.00 0.00 0.00 0.00 0.00 0.00 0.00 0.01 0.01 0.01 0.02 0.03 0.03 0.02 0.03 0.04 0.06 0.06 0.06 0.07 0.09 0.11 0.14 0.16 0.17 0.19 0.19 0.20 0.21 0.22 0.21 0.24 0.26
0.44 0.53 0.64 0.62 0.40 0.32 0.14 0.02 0.01 0.01 0.01 0.01 0.00 0.00 0.00 0.00 0.00 0.00 0.00 0.00 0.00 0.01 0.01 0.01 0.02 0.02 0.03 0.03 0.03 0.03 0.03 0.04 0.05 0.06 0.06 0.07 0.08 0.08 0.10 0.11 0.12 0.13 0.13 0.13 0.13 0.14 0.14 0.16 0.19
0.37 0.33 0.44 0.63 0.43 0.28 0.20 0.05 0.01 0.02 0.02 0.02 0.02 0.02 0.01 0.01 0.00 0.00 0.00 0.00 0.01 0.02 0.02 0.02 0.03 0.04 0.04 0.04 0.04 0.04 0.05 0.05 0.05 0.06 0.06 0.07 0.07 0.07 0.07 0.07 0.08 0.09 0.09 0.09 0.09 0.10 0.11 0.12 0.14

GEFSSGP_prec_meanprecacc_078.txt.gz
Total_Precipitation_Accumulation
0.00 0.00 0.00 0.00 0.00 0.00 0.00 0.00 0.00 0.00 0.00 0.00 0.00 0.00 0.00 0.00 0.00 0.00 0.00 0.00 0.00 0.00 0.01 0.04 0.07 0.12 0.12 0.09 0.06 0.03 0.01 0.02 0.03 0.04 0.06 0.07 0.05 0.03 0.03 0.04 0.05 0.08 0.12 0.18 0.24 0.24 0.23 0.19 0.16
0.00 0.00 0.00 0.00 0.00 0.00 0.00 0.00 0.00 0.00 0.00 0.00 0.00 0.00 0.00 0.00 0.00 0.00 0.00 0.00 0.00 0.00 0.01 0.02 0.05 0.09 0.10 0.08 0.05 0.02 0.02 0.02 0.02 0.03 0.06 0.08 0.06 0.04 0.04 0.04 0.05 0.08 0.11 0.15 0.16 0.13 0.09 0.06 0.06
0.00 0.00 0.00 0.00 0.00 0.00 0.00 0.00 0.00 0.00 0.00 0.00 0.00 0.00 0.00 0.00 0.00 0.00 0.00 0.00 0.00 0.00 0.00 0.02 0.04 0.07 0.09 0.07 0.05 0.03 0.02 0.02 0.02 0.03 0.05 0.09 0.09 0.07 0.05 0.04 0.05 0.05 0.06 0.08 0.07 0.04 0.02 0.01 0.01
0.01 0.01 0.01 0.00 0.00 0.00 0.00 0.00 0.00 0.00 0.00 0.00 0.00 0.00 0.00 0.00 0.00 0.00 0.00 0.00 0.00 0.00 0.00 0.02 0.03 0.06 0.07 0.06 0.04 0.03 0.02 0.01 0.01 0.02 0.03 0.07 0.11 0.10 0.06 0.03 0.02 0.03 0.03 0.04 0.03 0.01 0.00 0.00 0.00
0.02 0.03 0.02 0.00 0.00 0.00 0.00 0.00 0.00 0.00 0.00 0.00 0.00 0.00 0.00 0.00 0.00 0.00 0.00 0.00 0.00 0.00 0.01 0.02 0.04 0.06 0.06 0.05 0.04 0.03 0.02 0.01 0.01 0.01 0.02 0.05 0.09 0.10 0.07 0.02 0.01 0.01 0.02 0.02 0.01 0.00 0.00 0.00 0.00
0.04 0.04 0.04 0.01 0.00 0.00 0.00 0.00 0.00 0.00 0.00 0.00 0.00 0.00 0.01 0.00 0.00 0.00 0.00 0.00 0.00 0.00 0.01 0.03 0.05 0.06 0.06 0.05 0.05 0.03 0.02 0.01 0.01 0.01 0.01 0.03 0.05 0.08 0.06 0.03 0.01 0.01 0.01 0.01 0.01 0.01 0.01 0.00 0.00
0.04 0.03 0.02 0.00 0.00 0.00 0.00 0.00 0.00 0.00 0.00 0.00 0.00 0.01 0.02 0.01 0.01 0.01 0.01 0.02 0.02 0.01 0.01 0.02 0.05 0.06 0.07 0.06 0.05 0.04 0.02 0.01 0.01 0.01 0.01 0.01 0.02 0.04 0.05 0.03 0.02 0.02 0.02 0.02 0.02 0.02 0.02 0.02 0.01
0.04 0.04 0.02 0.01 0.00 0.00 0.00 0.00 0.00 0.00 0.00 0.00 0.00 0.01 0.04 0.02 0.02 0.02 0.02 0.03 0.03 0.02 0.02 0.01 0.03 0.04 0.06 0.05 0.04 0.04 0.03 0.01 0.01 0.01 0.01 0.00 0.00 0.01 0.02 0.01 0.01 0.01 0.01 0.02 0.02 0.02 0.02 0.02 0.02
0.06 0.06 0.02 0.01 0.00 0.00 0.00 0.00 0.00 0.00 0.00 0.00 0.00 0.01 0.02 0.01 0.02 0.03 0.03 0.03 0.04 0.03 0.02 0.01 0.02 0.03 0.04 0.04 0.03 0.03 0.02 0.01 0.01 0.01 0.00 0.00 0.00 0.01 0.01 0.00 0.00 0.01 0.01 0.01 0.01 0.02 0.02 0.01 0.01
0.07 0.04 0.01 0.00 0.00 0.00 0.00 0.00 0.00 0.00 0.00 0.00 0.00 0.00 0.01 0.01 0.04 0.05 0.04 0.03 0.04 0.04 0.03 0.02 0.02 0.02 0.03 0.03 0.03 0.03 0.02 0.01 0.00 0.00 0.00 0.00 0.00 0.00 0.00 0.00 0.00 0.00 0.00 0.00 0.01 0.01 0.01 0.00 0.00
0.03 0.01 0.00 0.00 0.00 0.00 0.01 0.00 0.00 0.00 0.00 0.00 0.00 0.00 0.01 0.04 0.06 0.07 0.07 0.04 0.03 0.03 0.02 0.02 0.02 0.01 0.02 0.02 0.02 0.02 0.02 0.01 0.01 0.00 0.00 0.00 0.00 0.00 0.00 0.00 0.00 0.00 0.00 0.00 0.00 0.00 0.00 0.00 0.00
0.01 0.00 0.00 0.01 0.00 0.00 0.00 0.00 0.00 0.00 0.00 0.00 0.00 0.00 0.00 0.02 0.04 0.05 0.05 0.04 0.03 0.02 0.02 0.02 0.02 0.02 0.01 0.01 0.01 0.01 0.01 0.01 0.01 0.00 0.00 0.00 0.00 0.00 0.00 0.00 0.00 0.00 0.00 0.00 0.00 0.00 0.00 0.00 0.00
0.02 0.00 0.00 0.01 0.01 0.00 0.00 0.00 0.00 0.00 0.00 0.00 0.00 0.01 0.01 0.01 0.03 0.04 0.03 0.03 0.03 0.02 0.02 0.02 0.02 0.02 0.02 0.01 0.01 0.01 0.01 0.01 0.00 0.00 0.00 0.00 0.00 0.00 0.00 0.00 0.00 0.00 0.00 0.00 0.00 0.00 0.00 0.00 0.00
0.02 0.01 0.01 0.01 0.01 0.00 0.00 0.00 0.00 0.00 0.00 0.00 0.00 0.01 0.01 0.01 0.01 0.02 0.02 0.02 0.02 0.02 0.02 0.02 0.03 0.03 0.02 0.01 0.01 0.01 0.01 0.01 0.01 0.01 0.01 0.00 0.00 0.00 0.00 0.00 0.00 0.00 0.00 0.00 0.00 0.00 0.00 0.00 0.00
0.04 0.06 0.04 0.02 0.01 0.00 0.01 0.01 0.00 0.00 0.00 0.00 0.00 0.00 0.00 0.00 0.01 0.01 0.01 0.01 0.01 0.02 0.02 0.02 0.04 0.04 0.03 0.02 0.02 0.02 0.02 0.02 0.02 0.02 0.01 0.01 0.01 0.00 0.00 0.00 0.00 0.00 0.00 0.00 0.00 0.00 0.00 0.00 0.00
0.15 0.15 0.08 0.02 0.01 0.01 0.01 0.00 0.00 0.00 0.00 0.00 0.00 0.00 0.00 0.00 0.01 0.01 0.01 0.01 0.01 0.01 0.02 0.02 0.03 0.04 0.04 0.04 0.05 0.05 0.05 0.05 0.05 0.06 0.04 0.03 0.02 0.01 0.01 0.01 0.00 0.00 0.00 0.00 0.00 0.00 0.00 0.00 0.00
0.24 0.13 0.05 0.02 0.01 0.01 0.01 0.00 0.00 0.00 0.00 0.00 0.00 0.00 0.00 0.00 0.01 0.00 0.00 0.01 0.00 0.01 0.01 0.01 0.02 0.03 0.04 0.07 0.10 0.12 0.14 0.12 0.12 0.10 0.07 0.06 0.05 0.04 0.03 0.02 0.01 0.00 0.00 0.00 0.00 0.00 0.00 0.00 0.00
0.09 0.04 0.02 0.02 0.01 0.01 0.01 0.00 0.00 0.00 0.00 0.00 0.00 0.00 0.00 0.00 0.00 0.00 0.00 0.00 0.00 0.00 0.01 0.01 0.01 0.03 0.06 0.12 0.16 0.17 0.18 0.15 0.15 0.13 0.12 0.13 0.10 0.08 0.06 0.04 0.02 0.01 0.01 0.00 0.00 0.00 0.00 0.00 0.00
0.07 0.05 0.03 0.02 0.01 0.02 0.01 0.00 0.00 0.00 0.00 0.00 0.00 0.00 0.00 0.00 0.00 0.00 0.00 0.00 0.00 0.00 0.00 0.01 0.01 0.02 0.05 0.09 0.10 0.11 0.12 0.15 0.17 0.17 0.20 0.21 0.18 0.15 0.11 0.08 0.06 0.03 0.02 0.02 0.02 0.01 0.01 0.01 0.01
0.17 0.11 0.06 0.03 0.02 0.03 0.02 0.00 0.00 0.00 0.00 0.00 0.00 0.00 0.00 0.00 0.00 0.00 0.00 0.00 0.00 0.00 0.00 0.00 0.01 0.01 0.02 0.03 0.07 0.11 0.17 0.22 0.23 0.24 0.22 0.21 0.21 0.21 0.17 0.11 0.09 0.08 0.05 0.03 0.03 0.03 0.03 0.03 0.03
0.25 0.15 0.09 0.05 0.04 0.04 0.04 0.02 0.00 0.00 0.00 0.00 0.00 0.00 0.00 0.00 0.00 0.00 0.00 0.00 0.00 0.00 0.00 0.00 0.00 0.01 0.02 0.04 0.10 0.16 0.21 0.21 0.19 0.15 0.15 0.18 0.22 0.24 0.21 0.19 0.16 0.13 0.11 0.08 0.08 0.08 0.09 0.09 0.09
0.30 0.14 0.12 0.10 0.11 0.09 0.06 0.04 0.00 0.00 0.00 0.00 0.00 0.00 0.00 0.00 0.00 0.00 0.00 0.00 0.00 0.00 0.00 0.00 0.00 0.00 0.01 0.04 0.06 0.08 0.11 0.11 0.12 0.14 0.18 0.21 0.22 0.24 0.24 0.23 0.22 0.20 0.18 0.16 0.17 0.19 0.19 0.18 0.16
0.29 0.17 0.17 0.18 0.20 0.19 0.10 0.06 0.01 0.00 0.00 0.00 0.00 0.00 0.00 0.00 0.00 0.00 0.00 0.00 0.00 0.00 0.00 0.00 0.00 0.00 0.01 0.02 0.03 0.06 0.08 0.10 0.13 0.16 0.18 0.20 0.21 0.22 0.24 0.25 0.26 0.25 0.26 0.30 0.32 0.33 0.33 0.32 0.29
0.34 0.36 0.37 0.35 0.44 0.42 0.13 0.08 0.02 0.00 0.00 0.00 0.00 0.00 0.00 0.00 0.00 0.00 0.00 0.00 0.00 0.00 0.00 0.00 0.00 0.00 0.00 0.01 0.02 0.04 0.06 0.08 0.11 0.13 0.15 0.18 0.22 0.23 0.24 0.26 0.29 0.32 0.34 0.36 0.39 0.43 0.46 0.47 0.45
0.57 0.79 0.98 0.83 0.66 0.33 0.08 0.07 0.02 0.00 0.00 0.00 0.00 0.00 0.00 0.00 0.00 0.00 0.00 0.00 0.00 0.00 0.00 0.00 0.00 0.00 0.01 0.02 0.02 0.02 0.05 0.08 0.11 0.13 0.16 0.18 0.18 0.18 0.21 0.27 0.31 0.37 0.41 0.45 0.46 0.45 0.46 0.51 0.56
0.57 0.69 0.79 0.56 0.29 0.10 0.05 0.04 0.01 0.00 0.00 0.00 0.00 0.00 0.00 0.00 0.00 0.00 0.00 0.00 0.00 0.00 0.00 0.00 0.00 0.00 0.01 0.02 0.02 0.02 0.03 0.05 0.07 0.10 0.11 0.14 0.17 0.22 0.26 0.28 0.32 0.35 0.38 0.40 0.41 0.43 0.45 0.50 0.55
0.55 0.53 0.44 0.51 0.32 0.14 0.06 0.02 0.00 0.00 0.00 0.00 0.00 0.00 0.00 0.00 0.00 0.00 0.00 0.00 0.00 0.00 0.00 0.00 0.00 0.01 0.02 0.02 0.03 0.02 0.03 0.04 0.06 0.07 0.08 0.11 0.14 0.17 0.20 0.23 0.26 0.27 0.29 0.31 0.34 0.36 0.38 0.41 0.45
0.49 0.44 0.57 0.80 0.57 0.27 0.07 0.01 0.00 0.00 0.00 0.00 0.00 0.00 0.00 0.00 0.00 0.00 0.00 0.00 0.00 0.00 0.00 0.01 0.01 0.01 0.02 0.03 0.03 0.02 0.03 0.04 0.06 0.06 0.06 0.07 0.09 0.11 0.14 0.16 0.18 0.19 0.20 0.20 0.22 0.23 0.24 0.27 0.30
0.47 0.56 0.66 0.65 0.42 0.33 0.15 0.02 0.01 0.01 0.01 0.01 0.00 0.00 0.00 0.00 0.00 0.00 0.00 0.00 0.00 0.01 0.01 0.01 0.02 0.02 0.03 0.03 0.03 0.03 0.03 0.04 0.05 0.06 0.06 0.07 0.08 0.08 0.10 0.11 0.12 0.13 0.13 0.13 0.14 0.14 0.15 0.18 0.21
0.38 0.35 0.44 0.64 0.44 0.28 0.20 0.05 0.01 0.02 0.02 0.02 0.02 0.02 0.01 0.01 0.00 0.00 0.00 0.00 0.01 0.02 0.02 0.02 0.03 0.04 0.04 0.04 0.04 0.04 0.05 0.05 0.05 0.06 0.06 0.07 0.07 0.07 0.07 0.07 0.08 0.09 0.09 0.09 0.09 0.10 0.11 0.13 0.15

GEFSSGP_prec_meanprecacc_084.txt.gz
Total_Precipitation_Accumulation
0.00 0.00 0.00 0.00 0.00 0.00 0.00 0.00 0.00 0.00 0.00 0.00 0.00 0.00 0.00 0.00 0.00 0.00 0.00 0.00 0.00 0.00 0.01 0.04 0.07 0.12 0.12 0.09 0.06 0.03 0.02 0.02 0.03 0.04 0.06 0.07 0.05 0.04 0.04 0.05 0.06 0.09 0.13 0.18 0.24 0.24 0.23 0.19 0.16
0.00 0.00 0.00 0.00 0.00 0.00 0.00 0.00 0.00 0.00 0.00 0.00 0.00 0.00 0.00 0.00 0.00 0.00 0.00 0.00 0.00 0.00 0.01 0.03 0.06 0.10 0.11 0.08 0.05 0.03 0.02 0.02 0.03 0.04 0.07 0.08 0.06 0.04 0.05 0.05 0.06 0.09 0.11 0.15 0.16 0.13 0.09 0.06 0.06
0.00 0.00 0.01 0.00 0.00 0.00 0.00 0.00 0.00 0.00 0.00 0.00 0.00 0.00 0.00 0.00 0.00 0.00 0.00 0.00 0.00 0.00 0.01 0.03 0.05 0.08 0.09 0.08 0.05 0.03 0.02 0.02 0.02 0.03 0.05 0.09 0.10 0.07 0.06 0.05 0.05 0.06 0.07 0.08 0.07 0.04 0.02 0.01 0.01
0.01 0.02 0.01 0.00 0.00 0.00 0.00 0.00 0.00 0.00 0.00 0.00 0.00 0.00 0.00 0.00 0.00 0.00 0.00 0.00 0.00 0.00 0.01 0.03 0.05 0.07 0.07 0.06 0.05 0.03 0.02 0.02 0.02 0.02 0.04 0.07 0.11 0.11 0.07 0.04 0.03 0.03 0.03 0.04 0.03 0.01 0.00 0.00 0.00
0.04 0.04 0.03 0.01 0.00 0.00 0.00 0.00 0.00 0.00 0.00 0.00 0.00 0.00 0.00 0.00 0.00 0.00 0.00 0.00 0.00 0.00 0.01 0.04 0.06 0.07 0.06 0.06 0.05 0.04 0.03 0.02 0.01 0.01 0.02 0.05 0.10 0.11 0.07 0.03 0.01 0.01 0.02 0.02 0.01 0.01 0.00 0.00 0.00
0.07 0.06 0.06 0.02 0.00 0.00 0.00 0.00 0.00 0.00 0.00 0.00 0.00 0.00 0.01 0.00 0.00 0.00 0.00 0.01 0.00 0.00 0.02 0.05 0.07 0.07 0.06 0.06 0.05 0.04 0.02 0.02 0.01 0.01 0.01 0.03 0.06 0.08 0.07 0.03 0.01 0.01 0.02 0.01 0.01 0.01 0.01 0.00 0.00
0.07 0.06 0.04 0.01 0.00 0.00 0.00 0.00 0.00 0.00 0.00 0.00 0.00 0.01 0.03 0.01 0.01 0.01 0.01 0.02 0.02 0.01 0.02 0.04 0.07 0.07 0.07 0.06 0.05 0.04 0.03 0.02 0.01 0.01 0.01 0.02 0.02 0.04 0.05 0.03 0.02 0.02 0.02 0.02 0.02 0.02 0.02 0.02 0.01
0.07 0.07 0.04 0.01 0.00 0.00 0.00 0.00 0.00 0.00 0.00 0.00 0.00 0.01 0.05 0.02 0.03 0.03 0.03 0.04 0.04 0.03 0.03 0.03 0.05 0.06 0.07 0.06 0.05 0.04 0.03 0.02 0.01 0.01 0.01 0.00 0.01 0.02 0.02 0.01 0.01 0.01 0.01 0.02 0.02 0.02 0.02 0.02 0.02
0.09 0.10 0.04 0.01 0.00 0.00 0.00 0.00 0.00 0.00 0.00 0.00 0.00 0.01 0.02 0.02 0.04 0.06 0.05 0.05 0.06 0.05 0.04 0.03 0.04 0.04 0.05 0.05 0.04 0.03 0.02 0.01 0.01 0.01 0.00 0.00 0.00 0.01 0.01 0.00 0.00 0.01 0.01 0.01 0.01 0.02 0.02 0.01 0.01
0.10 0.07 0.03 0.00 0.00 0.00 0.00 0.00 0.00 0.00 0.00 0.00 0.01 0.01 0.02 0.04 0.09 0.10 0.08 0.06 0.06 0.06 0.05 0.03 0.03 0.03 0.04 0.04 0.03 0.03 0.02 0.01 0.01 0.00 0.00 0.00 0.00 0.00 0.00 0.00 0.00 0.00 0.01 0.00 0.01 0.01 0.01 0.00 0.00
0.05 0.02 0.01 0.00 0.00 0.00 0.01 0.00 0.00 0.00 0.00 0.00 0.01 0.03 0.05 0.10 0.13 0.12 0.11 0.08 0.06 0.05 0.04 0.03 0.03 0.03 0.03 0.03 0.02 0.02 0.02 0.01 0.01 0.00 0.00 0.00 0.00 0.00 0.00 0.00 0.00 0.00 0.00 0.00 0.00 0.00 0.00 0.00 0.00
0.02 0.01 0.00 0.01 0.01 0.01 0.01 0.00 0.00 0.00 0.00 0.00 0.01 0.03 0.04 0.06 0.08 0.09 0.10 0.08 0.07 0.04 0.03 0.03 0.03 0.03 0.02 0.02 0.02 0.02 0.01 0.01 0.01 0.00 0.00 0.00 0.00 0.00 0.00 0.00 0.00 0.00 0.00 0.00 0.00 0.00 0.00 0.00 0.00
0.03 0.01 0.01 0.01 0.01 0.01 0.01 0.01 0.00 0.00 0.00 0.00 0.02 0.05 0.06 0.06 0.08 0.10 0.09 0.09 0.08 0.05 0.03 0.03 0.03 0.03 0.03 0.02 0.01 0.01 0.01 0.01 0.00 0.00 0.00 0.00 0.00 0.00 0.00 0.00 0.00 0.00 0.00 0.00 0.00 0.00 0.00 0.00 0.00
0.02 0.02 0.02 0.02 0.02 0.01 0.01 0.01 0.01 0.00 0.00 0.01 0.03 0.06 0.07 0.06 0.07 0.06 0.07 0.06 0.05 0.04 0.03 0.03 0.03 0.04 0.03 0.02 0.01 0.01 0.01 0.01 0.01 0.01 0.01 0.00 0.00 0.00 0.00 0.00 0.00 0.00 0.00 0.00 0.00 0.00 0.00 0.00 0.00
0.06 0.08 0.05 0.04 0.03 0.02 0.02 0.03 0.02 0.00 0.00 0.01 0.02 0.04 0.05 0.06 0.06 0.05 0.04 0.04 0.04 0.04 0.05 0.04 0.05 0.05 0.04 0.03 0.03 0.02 0.02 0.02 0.02 0.02 0.01 0.01 0.01 0.00 0.00 0.00 0.00 0.00 0.00 0.00 0.00 0.00 0.00 0.00 0.00
0.19 0.18 0.10 0.03 0.03 0.03 0.03 0.03 0.01 0.00 0.00 0.00 0.01 0.01 0.02 0.04 0.04 0.04 0.03 0.03 0.03 0.03 0.03 0.04 0.04 0.05 0.05 0.05 0.05 0.06 0.06 0.06 0.05 0.06 0.04 0.03 0.02 0.01 0.01 0.01 0.00 0.00 0.00 0.00 0.00 0.00 0.00 0.00 0.00
0.28 0.16 0.06 0.02 0.01 0.03 0.03 0.01 0.01 0.01 0.01 0.00 0.00 0.01 0.01 0.02 0.03 0.03 0.03 0.03 0.03 0.03 0.03 0.03 0.03 0.03 0.05 0.08 0.11 0.13 0.15 0.12 0.13 0.10 0.07 0.06 0.05 0.04 0.03 0.02 0.01 0.01 0.01 0.00 0.00 0.00 0.00 0.00 0.00
0.12 0.05 0.03 0.02 0.01 0.02 0.02 0.00 0.00 0.01 0.01 0.00 0.00 0.00 0.00 0.01 0.01 0.02 0.02 0.03 0.03 0.05 0.05 0.04 0.03 0.05 0.07 0.13 0.18 0.19 0.19 0.16 0.16 0.13 0.12 0.13 0.10 0.08 0.06 0.04 0.02 0.01 0.01 0.01 0.01 0.01 0.00 0.00 0.01
0.09 0.06 0.04 0.02 0.02 0.02 0.01 0.00 0.00 0.01 0.01 0.00 0.00 0.00 0.00 0.00 0.00 0.01 0.01 0.02 0.03 0.03 0.03 0.03 0.03 0.04 0.07 0.09 0.11 0.11 0.13 0.16 0.18 0.18 0.20 0.21 0.18 0.16 0.12 0.08 0.06 0.04 0.02 0.02 0.02 0.02 0.02 0.02 0.02
0.21 0.15 0.07 0.04 0.02 0.04 0.02 0.01 0.00 0.00 0.01 0.00 0.00 0.00 0.00 0.00 0.00 0.00 0.00 0.01 0.01 0.01 0.02 0.02 0.03 0.03 0.04 0.05 0.08 0.12 0.19 0.22 0.23 0.25 0.23 0.21 0.22 0.21 0.18 0.12 0.10 0.09 0.07 0.04 0.04 0.05 0.04 0.04 0.04
0.30 0.20 0.11 0.06 0.04 0.05 0.05 0.03 0.00 0.00 0.00 0.00 0.00 0.00 0.00 0.00 0.00 0.00 0.00 0.00 0.00 0.00 0.01 0.01 0.01 0.02 0.04 0.07 0.12 0.18 0.22 0.22 0.20 0.16 0.16 0.20 0.24 0.26 0.23 0.20 0.17 0.15 0.13 0.09 0.09 0.10 0.11 0.11 0.11
0.35 0.17 0.15 0.12 0.13 0.10 0.06 0.06 0.01 0.00 0.00 0.00 0.00 0.00 0.00 0.00 0.00 0.00 0.00 0.00 0.00 0.00 0.00 0.00 0.01 0.01 0.02 0.06 0.07 0.10 0.12 0.13 0.14 0.16 0.20 0.25 0.26 0.27 0.26 0.26 0.24 0.22 0.20 0.18 0.19 0.22 0.22 0.21 0.18
0.33 0.19 0.20 0.22 0.23 0.20 0.10 0.07 0.01 0.00 0.00 0.00 0.00 0.00 0.00 0.00 0.00 0.00 0.00 0.00 0.00 0.00 0.00 0.00 0.01 0.01 0.01 0.03 0.03 0.07 0.09 0.11 0.15 0.17 0.19 0.22 0.23 0.24 0.26 0.27 0.28 0.27 0.28 0.31 0.34 0.35 0.35 0.34 0.31
0.40 0.41 0.43 0.41 0.49 0.45 0.13 0.08 0.02 0.00 0.00 0.00 0.00 0.00 0.00 0.00 0.00 0.00 0.00 0.00 0.00 0.00 0.00 0.00 0.00 0.00 0.01 0.02 0.03 0.04 0.06 0.10 0.12 0.14 0.16 0.20 0.24 0.25 0.25 0.27 0.29 0.33 0.36 0.37 0.40 0.45 0.48 0.50 0.48
0.64 0.89 1.12 0.97 0.77 0.35 0.08 0.07 0.02 0.00 0.00 0.00 0.00 0.00 0.00 0.00 0.00 0.00 0.00 0.00 0.00 0.00 0.00 0.00 0.00 0.00 0.01 0.02 0.02 0.03 0.06 0.10 0.13 0.15 0.18 0.20 0.20 0.19 0.22 0.28 0.33 0.38 0.42 0.46 0.47 0.47 0.47 0.53 0.57
0.64 0.77 0.89 0.64 0.32 0.11 0.05 0.04 0.01 0.00 0.00 0.00 0.00 0.00 0.00 0.00 0.00 0.00 0.00 0.00 0.00 0.00 0.00 0.00 0.00 0.00 0.01 0.02 0.02 0.03 0.04 0.07 0.09 0.11 0.13 0.16 0.19 0.23 0.27 0.30 0.33 0.36 0.39 0.41 0.42 0.44 0.46 0.52 0.57
0.60 0.58 0.49 0.57 0.34 0.15 0.06 0.02 0.00 0.00 0.00 0.00 0.00 0.00 0.00 0.00 0.00 0.00 0.00 0.00 0.00 0.00 0.00 0.00 0.00 0.01 0.02 0.03 0.03 0.02 0.03 0.04 0.06 0.08 0.09 0.12 0.15 0.18 0.21 0.24 0.26 0.27 0.29 0.31 0.34 0.37 0.38 0.42 0.45
0.52 0.46 0.61 0.85 0.60 0.28 0.07 0.01 0.00 0.00 0.00 0.00 0.00 0.00 0.00 0.00 0.00 0.00 0.00 0.00 0.00 0.00 0.00 0.01 0.01 0.01 0.02 0.03 0.03 0.02 0.03 0.04 0.06 0.06 0.06 0.07 0.09 0.11 0.14 0.17 0.18 0.20 0.20 0.21 0.23 0.24 0.24 0.27 0.31
0.49 0.59 0.70 0.68 0.44 0.34 0.16 0.02 0.01 0.01 0.01 0.01 0.00 0.00 0.00 0.00 0.00 0.00 0.00 0.00 0.00 0.01 0.01 0.01 0.02 0.02 0.03 0.03 0.03 0.03 0.03 0.04 0.05 0.06 0.06 0.07 0.08 0.08 0.10 0.11 0.13 0.13 0.13 0.13 0.14 0.14 0.15 0.18 0.21
0.39 0.36 0.47 0.66 0.45 0.29 0.20 0.05 0.01 0.02 0.02 0.02 0.02 0.02 0.01 0.01 0.00 0.00 0.00 0.00 0.01 0.02 0.02 0.02 0.03 0.04 0.04 0.04 0.04 0.04 0.05 0.05 0.05 0.06 0.06 0.07 0.07 0.07 0.07 0.07 0.08 0.09 0.09 0.09 0.09 0.10 0.11 0.13 0.15

GEFSSGP_prec_meanprecacc_090.txt.gz
Total_Precipitation_Accumulation
0.00 0.00 0.00 0.00 0.00 0.00 0.00 0.00 0.00 0.00 0.00 0.00 0.00 0.00 0.00 0.00 0.00 0.00 0.00 0.00 0.00 0.00 0.02 0.05 0.08 0.13 0.13 0.09 0.06 0.03 0.02 0.03 0.04 0.05 0.07 0.07 0.05 0.04 0.04 0.05 0.07 0.10 0.14 0.19 0.25 0.25 0.23 0.20 0.16
0.01 0.01 0.00 0.00 0.00 0.00 0.00 0.00 0.00 0.00 0.00 0.00 0.00 0.00 0.00 0.00 0.00 0.00 0.00 0.00 0.00 0.00 0.01 0.04 0.07 0.11 0.11 0.09 0.06 0.03 0.02 0.02 0.03 0.04 0.07 0.09 0.06 0.05 0.05 0.06 0.07 0.09 0.12 0.15 0.16 0.13 0.09 0.06 0.06
0.03 0.01 0.01 0.00 0.00 0.00 0.00 0.00 0.00 0.00 0.00 0.00 0.00 0.00 0.00 0.00 0.00 0.00 0.00 0.00 0.00 0.00 0.01 0.04 0.06 0.09 0.10 0.08 0.06 0.03 0.03 0.02 0.02 0.03 0.06 0.09 0.10 0.08 0.06 0.06 0.06 0.06 0.07 0.08 0.07 0.04 0.02 0.01 0.01
0.05 0.04 0.02 0.01 0.00 0.00 0.00 0.00 0.00 0.00 0.00 0.00 0.00 0.00 0.00 0.00 0.00 0.00 0.00 0.00 0.00 0.00 0.01 0.04 0.06 0.08 0.08 0.07 0.05 0.04 0.03 0.02 0.02 0.03 0.04 0.08 0.12 0.12 0.07 0.04 0.03 0.03 0.03 0.04 0.03 0.01 0.00 0.00 0.00
0.09 0.08 0.05 0.02 0.00 0.00 0.00 0.00 0.00 0.00 0.00 0.00 0.00 0.00 0.00 0.00 0.00 0.00 0.00 0.00 0.00 0.00 0.02 0.05 0.07 0.08 0.07 0.06 0.05 0.04 0.03 0.02 0.01 0.02 0.02 0.06 0.10 0.11 0.08 0.03 0.01 0.01 0.02 0.02 0.01 0.01 0.00 0.00 0.00
0.14 0.11 0.10 0.03 0.00 0.00 0.00 0.00 0.00 0.00 0.00 0.00 0.00 0.00 0.01 0.01 0.01 0.01 0.01 0.01 0.01 0.01 0.02 0.06 0.09 0.08 0.07 0.07 0.06 0.04 0.03 0.02 0.01 0.01 0.02 0.04 0.06 0.09 0.07 0.03 0.01 0.02 0.02 0.01 0.01 0.01 0.01 0.00 0.01
0.14 0.11 0.07 0.02 0.00 0.00 0.00 0.00 0.00 0.00 0.00 0.00 0.00 0.01 0.03 0.02 0.02 0.02 0.02 0.03 0.03 0.01 0.02 0.06 0.09 0.09 0.09 0.07 0.06 0.04 0.03 0.02 0.01 0.01 0.02 0.02 0.03 0.04 0.05 0.03 0.02 0.02 0.02 0.02 0.02 0.02 0.02 0.02 0.01
0.12 0.13 0.08 0.02 0.01 0.00 0.00 0.00 0.00 0.00 0.00 0.00 0.00 0.01 0.05 0.03 0.04 0.05 0.04 0.05 0.05 0.04 0.04 0.05 0.07 0.08 0.08 0.07 0.05 0.04 0.03 0.02 0.01 0.01 0.01 0.01 0.01 0.02 0.02 0.01 0.02 0.02 0.02 0.02 0.02 0.02 0.02 0.02 0.02
0.14 0.17 0.10 0.03 0.00 0.00 0.00 0.00 0.00 0.00 0.00 0.00 0.00 0.01 0.02 0.03 0.06 0.09 0.08 0.08 0.09 0.08 0.06 0.05 0.05 0.06 0.06 0.06 0.04 0.04 0.03 0.02 0.01 0.01 0.00 0.00 0.01 0.01 0.01 0.01 0.00 0.01 0.01 0.01 0.01 0.02 0.02 0.01 0.01
0.15 0.11 0.05 0.01 0.00 0.00 0.00 0.00 0.00 0.00 0.00 0.00 0.01 0.02 0.03 0.06 0.10 0.12 0.10 0.08 0.08 0.08 0.07 0.06 0.05 0.05 0.05 0.05 0.04 0.04 0.02 0.01 0.01 0.01 0.00 0.00 0.01 0.00 0.01 0.00 0.00 0.01 0.01 0.01 0.01 0.01 0.01 0.00 0.00
0.07 0.03 0.01 0.01 0.00 0.00 0.01 0.00 0.00 0.00 0.00 0.00 0.01 0.03 0.06 0.13 0.15 0.14 0.13 0.10 0.07 0.06 0.05 0.05 0.05 0.04 0.04 0.04 0.03 0.03 0.02 0.02 0.01 0.00 0.00 0.00 0.00 0.00 0.00 0.00 0.00 0.00 0.00 0.00 0.00 0.00 0.00 0.00 0.00
0.04 0.02 0.01 0.01 0.01 0.01 0.01 0.01 0.00 0.00 0.00 0.00 0.01 0.03 0.05 0.08 0.11 0.12 0.12 0.10 0.08 0.06 0.04 0.05 0.05 0.04 0.03 0.03 0.02 0.02 0.01 0.01 0.01 0.00 0.00 0.00 0.00 0.00 0.00 0.00 0.00 0.00 0.00 0.00 0.00 0.00 0.00 0.00 0.00
0.05 0.02 0.02 0.02 0.02 0.02 0.01 0.01 0.01 0.00 0.00 0.00 0.02 0.06 0.07 0.08 0.12 0.14 0.14 0.13 0.12 0.07 0.06 0.05 0.05 0.05 0.04 0.03 0.02 0.02 0.01 0.01 0.01 0.00 0.00 0.00 0.00 0.00 0.00 0.00 0.00 0.00 0.00 0.00 0.00 0.00 0.00 0.00 0.00
0.04 0.04 0.04 0.03 0.02 0.02 0.02 0.02 0.01 0.00 0.00 0.02 0.04 0.07 0.08 0.08 0.10 0.10 0.11 0.10 0.10 0.08 0.06 0.05 0.05 0.06 0.04 0.03 0.02 0.02 0.01 0.01 0.01 0.01 0.01 0.00 0.00 0.00 0.00 0.00 0.00 0.00 0.00 0.00 0.00 0.00 0.00 0.00 0.00
0.08 0.11 0.08 0.05 0.04 0.02 0.03 0.04 0.03 0.00 0.00 0.01 0.02 0.05 0.07 0.08 0.08 0.07 0.07 0.07 0.09 0.09 0.09 0.08 0.08 0.08 0.06 0.04 0.04 0.03 0.02 0.03 0.02 0.02 0.01 0.01 0.01 0.00 0.00 0.00 0.00 0.00 0.00 0.00 0.00 0.00 0.00 0.00 0.00
0.23 0.23 0.13 0.04 0.04 0.04 0.05 0.04 0.02 0.01 0.00 0.00 0.01 0.02 0.04 0.05 0.06 0.07 0.07 0.07 0.08 0.11 0.10 0.10 0.10 0.09 0.09 0.07 0.07 0.06 0.06 0.06 0.06 0.06 0.04 0.03 0.02 0.01 0.01 0.01 0.00 0.00 0.00 0.00 0.00 0.00 0.00 0.00 0.00
0.36 0.20 0.08 0.03 0.03 0.04 0.04 0.02 0.01 0.01 0.01 0.00 0.00 0.01 0.02 0.03 0.04 0.04 0.05 0.08 0.08 0.11 0.12 0.11 0.11 0.10 0.11 0.14 0.15 0.15 0.16 0.13 0.13 0.11 0.07 0.06 0.05 0.04 0.03 0.02 0.01 0.01 0.01 0.00 0.00 0.00 0.00 0.00 0.00
0.20 0.08 0.04 0.03 0.01 0.02 0.02 0.00 0.00 0.01 0.01 0.00 0.00 0.00 0.01 0.01 0.02 0.02 0.04 0.06 0.08 0.13 0.14 0.13 0.12 0.13 0.17 0.21 0.24 0.23 0.22 0.17 0.17 0.14 0.13 0.13 0.10 0.08 0.06 0.04 0.03 0.01 0.01 0.01 0.01 0.01 0.01 0.01 0.01
0.16 0.10 0.05 0.02 0.02 0.03 0.01 0.00 0.00 0.01 0.01 0.01 0.00 0.00 0.00 0.01 0.01 0.01 0.03 0.05 0.07 0.09 0.10 0.12 0.12 0.13 0.16 0.17 0.16 0.15 0.16 0.19 0.20 0.20 0.22 0.21 0.18 0.16 0.12 0.08 0.06 0.04 0.03 0.02 0.02 0.02 0.02 0.02 0.02
0.28 0.21 0.11 0.05 0.03 0.05 0.03 0.01 0.00 0.01 0.01 0.01 0.00 0.00 0.00 0.00 0.01 0.01 0.01 0.02 0.04 0.06 0.07 0.08 0.10 0.12 0.12 0.12 0.17 0.19 0.23 0.26 0.27 0.28 0.25 0.23 0.23 0.22 0.18 0.12 0.11 0.10 0.07 0.05 0.05 0.05 0.05 0.04 0.04
0.35 0.25 0.15 0.08 0.05 0.06 0.06 0.03 0.00 0.00 0.00 0.00 0.00 0.00 0.00 0.00 0.00 0.01 0.01 0.02 0.03 0.04 0.04 0.04 0.06 0.09 0.11 0.15 0.22 0.28 0.30 0.27 0.24 0.19 0.18 0.22 0.25 0.27 0.24 0.20 0.18 0.16 0.14 0.10 0.10 0.11 0.12 0.13 0.12
0.39 0.20 0.19 0.16 0.15 0.12 0.07 0.06 0.01 0.00 0.00 0.00 0.00 0.00 0.00 0.00 0.00 0.00 0.00 0.01 0.02 0.02 0.03 0.04 0.05 0.06 0.08 0.12 0.13 0.16 0.18 0.17 0.17 0.20 0.24 0.28 0.28 0.29 0.28 0.27 0.25 0.23 0.21 0.19 0.21 0.24 0.24 0.24 0.20
0.38 0.22 0.23 0.25 0.26 0.23 0.11 0.07 0.01 0.00 0.00 0.00 0.00 0.00 0.00 0.00 0.00 0.00 0.00 0.00 0.01 0.01 0.02 0.03 0.03 0.03 0.04 0.06 0.07 0.11 0.12 0.14 0.17 0.20 0.22 0.24 0.25 0.26 0.27 0.28 0.29 0.28 0.29 0.32 0.35 0.36 0.36 0.35 0.33
0.45 0.45 0.47 0.45 0.53 0.48 0.14 0.08 0.02 0.00 0.00 0.00 0.00 0.00 0.00 0.00 0.00 0.00 0.00 0.00 0.00 0.00 0.01 0.01 0.01 0.01 0.02 0.04 0.05 0.07 0.09 0.12 0.15 0.16 0.18 0.21 0.25 0.26 0.26 0.29 0.31 0.35 0.37 0.38 0.42 0.46 0.49 0.51 0.50
0.71 0.95 1.22 1.07 0.83 0.37 0.08 0.07 0.03 0.00 0.00 0.00 0.00 0.00 0.00 0.00 0.00 0.00 0.00 0.00 0.00 0.00 0.00 0.00 0.01 0.01 0.02 0.03 0.03 0.04 0.08 0.12 0.14 0.17 0.19 0.21 0.21 0.20 0.23 0.29 0.34 0.39 0.44 0.47 0.48 0.48 0.48 0.54 0.59
0.69 0.82 0.94 0.69 0.35 0.11 0.05 0.04 0.01 0.00 0.00 0.00 0.00 0.00 0.00 0.00 0.00 0.00 0.00 0.00 0.00 0.00 0.00 0.00 0.00 0.01 0.02 0.03 0.03 0.04 0.05 0.08 0.10 0.13 0.14 0.17 0.20 0.25 0.29 0.32 0.35 0.38 0.40 0.42 0.43 0.45 0.47 0.53 0.58
0.64 0.62 0.52 0.60 0.35 0.16 0.06 0.02 0.00 0.00 0.00 0.00 0.00 0.00 0.00 0.00 0.00 0.00 0.00 0.00 0.00 0.00 0.00 0.00 0.00 0.01 0.02 0.03 0.04 0.03 0.04 0.05 0.07 0.09 0.10 0.13 0.16 0.19 0.22 0.26 0.28 0.28 0.30 0.32 0.35 0.37 0.39 0.42 0.47
0.56 0.50 0.63 0.87 0.62 0.29 0.07 0.01 0.00 0.00 0.00 0.00 0.00 0.00 0.00 0.00 0.00 0.00 0.00 0.00 0.00 0.00 0.00 0.01 0.01 0.01 0.02 0.03 0.03 0.03 0.03 0.05 0.06 0.07 0.06 0.07 0.09 0.12 0.14 0.17 0.19 0.20 0.21 0.21 0.23 0.24 0.24 0.28 0.31
0.52 0.62 0.71 0.70 0.46 0.35 0.16 0.02 0.01 0.01 0.01 0.01 0.00 0.00 0.00 0.00 0.00 0.00 0.00 0.00 0.00 0.01 0.01 0.01 0.02 0.02 0.03 0.04 0.03 0.03 0.04 0.05 0.06 0.06 0.06 0.07 0.08 0.08 0.10 0.11 0.13 0.13 0.13 0.13 0.14 0.14 0.15 0.18 0.21
0.41 0.38 0.48 0.69 0.48 0.30 0.20 0.06 0.01 0.02 0.02 0.02 0.02 0.02 0.01 0.01 0.00 0.00 0.00 0.00 0.01 0.02 0.02 0.02 0.03 0.04 0.04 0.04 0.04 0.05 0.05 0.05 0.05 0.06 0.06 0.07 0.07 0.07 0.07 0.07 0.08 0.09 0.09 0.09 0.09 0.10 0.11 0.13 0.15

GEFSSGP_prec_meanprecacc_096.txt.gz
Total_Precipitation_Accumulation
0.01 0.01 0.02 0.01 0.01 0.00 0.00 0.00 0.00 0.00 0.00 0.00 0.00 0.00 0.00 0.00 0.00 0.02 0.00 0.00 0.00 0.00 0.02 0.05 0.09 0.14 0.13 0.10 0.07 0.03 0.02 0.03 0.04 0.05 0.07 0.08 0.06 0.05 0.06 0.07 0.10 0.13 0.16 0.20 0.25 0.26 0.24 0.20 0.17
0.02 0.03 0.03 0.02 0.01 0.00 0.00 0.00 0.00 0.00 0.00 0.00 0.00 0.01 0.00 0.00 0.00 0.00 0.00 0.00 0.00 0.00 0.01 0.04 0.07 0.11 0.12 0.09 0.06 0.03 0.03 0.03 0.04 0.05 0.07 0.09 0.07 0.06 0.07 0.08 0.08 0.10 0.12 0.15 0.17 0.13 0.10 0.06 0.06
0.05 0.04 0.05 0.03 0.01 0.00 0.00 0.00 0.00 0.00 0.00 0.00 0.00 0.00 0.00 0.00 0.00 0.00 0.00 0.00 0.00 0.00 0.01 0.04 0.06 0.09 0.11 0.08 0.06 0.04 0.03 0.03 0.03 0.04 0.06 0.10 0.11 0.09 0.07 0.07 0.06 0.06 0.07 0.08 0.07 0.05 0.02 0.01 0.01
0.10 0.10 0.07 0.04 0.01 0.00 0.00 0.00 0.00 0.00 0.00 0.00 0.00 0.00 0.00 0.00 0.00 0.00 0.00 0.00 0.00 0.00 0.01 0.05 0.07 0.08 0.08 0.07 0.06 0.04 0.03 0.03 0.02 0.03 0.04 0.09 0.13 0.13 0.08 0.04 0.03 0.03 0.03 0.04 0.03 0.01 0.01 0.00 0.00
0.19 0.20 0.14 0.06 0.01 0.00 0.00 0.00 0.00 0.00 0.00 0.00 0.00 0.00 0.01 0.00 0.00 0.00 0.00 0.00 0.00 0.00 0.02 0.06 0.08 0.09 0.08 0.07 0.06 0.05 0.03 0.02 0.02 0.02 0.03 0.07 0.11 0.12 0.08 0.03 0.02 0.02 0.02 0.02 0.02 0.01 0.00 0.00 0.00
0.30 0.26 0.18 0.07 0.01 0.00 0.00 0.00 0.00 0.00 0.00 0.00 0.00 0.01 0.02 0.01 0.01 0.01 0.01 0.01 0.01 0.01 0.03 0.07 0.10 0.09 0.08 0.07 0.06 0.04 0.03 0.02 0.01 0.02 0.03 0.05 0.07 0.09 0.07 0.03 0.02 0.02 0.02 0.02 0.01 0.01 0.01 0.01 0.01
0.31 0.26 0.16 0.05 0.01 0.00 0.00 0.00 0.00 0.00 0.00 0.00 0.00 0.02 0.05 0.03 0.02 0.02 0.02 0.03 0.03 0.02 0.03 0.07 0.10 0.10 0.10 0.08 0.06 0.05 0.03 0.02 0.02 0.02 0.03 0.03 0.03 0.05 0.05 0.03 0.02 0.02 0.02 0.02 0.02 0.02 0.02 0.02 0.01
0.25 0.30 0.19 0.06 0.02 0.00 0.00 0.00 0.00 0.00 0.00 0.00 0.00 0.02 0.07 0.04 0.05 0.06 0.05 0.06 0.06 0.05 0.05 0.06 0.08 0.09 0.09 0.08 0.06 0.05 0.03 0.02 0.02 0.02 0.01 0.01 0.01 0.02 0.02 0.02 0.02 0.02 0.02 0.02 0.02 0.02 0.02 0.02 0.02
0.27 0.33 0.21 0.07 0.02 0.01 0.00 0.01 0.00 0.00 0.00 0.00 0.00 0.02 0.03 0.03 0.07 0.10 0.10 0.10 0.10 0.09 0.08 0.06 0.07 0.08 0.08 0.07 0.05 0.04 0.03 0.02 0.01 0.01 0.01 0.00 0.01 0.01 0.01 0.01 0.01 0.01 0.01 0.01 0.01 0.02 0.02 0.01 0.01
0.29 0.23 0.13 0.03 0.01 0.01 0.02 0.01 0.01 0.00 0.00 0.00 0.01 0.02 0.03 0.07 0.12 0.14 0.12 0.10 0.10 0.10 0.09 0.08 0.06 0.06 0.07 0.06 0.05 0.04 0.03 0.01 0.01 0.01 0.01 0.01 0.01 0.01 0.01 0.00 0.00 0.01 0.01 0.01 0.01 0.01 0.01 0.00 0.00
0.15 0.09 0.05 0.03 0.04 0.04 0.04 0.03 0.02 0.01 0.00 0.00 0.01 0.03 0.07 0.15 0.18 0.17 0.17 0.14 0.10 0.08 0.08 0.07 0.07 0.06 0.06 0.05 0.04 0.03 0.02 0.02 0.01 0.00 0.00 0.01 0.01 0.00 0.00 0.00 0.00 0.00 0.00 0.01 0.00 0.00 0.00 0.00 0.00
0.08 0.04 0.04 0.06 0.06 0.05 0.04 0.04 0.04 0.02 0.01 0.00 0.01 0.03 0.06 0.10 0.14 0.16 0.17 0.16 0.14 0.10 0.08 0.08 0.08 0.06 0.05 0.04 0.03 0.02 0.02 0.01 0.01 0.00 0.00 0.00 0.00 0.00 0.00 0.00 0.00 0.00 0.00 0.01 0.00 0.00 0.00 0.00 0.00
0.08 0.04 0.04 0.07 0.09 0.06 0.04 0.04 0.04 0.02 0.01 0.01 0.03 0.06 0.08 0.10 0.15 0.19 0.20 0.20 0.20 0.14 0.11 0.09 0.09 0.08 0.06 0.05 0.03 0.02 0.01 0.01 0.01 0.00 0.00 0.00 0.00 0.00 0.00 0.00 0.00 0.00 0.00 0.00 0.00 0.00 0.00 0.00 0.00
0.07 0.07 0.07 0.08 0.09 0.07 0.06 0.06 0.04 0.02 0.01 0.02 0.05 0.09 0.09 0.10 0.12 0.13 0.15 0.15 0.16 0.17 0.16 0.12 0.10 0.11 0.09 0.06 0.03 0.02 0.02 0.01 0.01 0.01 0.01 0.00 0.00 0.00 0.00 0.00 0.00 0.00 0.00 0.00 0.00 0.00 0.00 0.00 0.00
0.12 0.16 0.14 0.10 0.09 0.07 0.08 0.10 0.06 0.02 0.01 0.02 0.03 0.06 0.07 0.09 0.10 0.08 0.08 0.10 0.13 0.16 0.20 0.17 0.17 0.16 0.11 0.08 0.06 0.03 0.03 0.03 0.03 0.03 0.02 0.01 0.01 0.00 0.00 0.00 0.00 0.00 0.00 0.00 0.00 0.00 0.00 0.00 0.00
0.29 0.31 0.22 0.09 0.08 0.07 0.10 0.09 0.04 0.01 0.01 0.01 0.01 0.03 0.04 0.06 0.07 0.08 0.08 0.08 0.11 0.15 0.16 0.20 0.19 0.18 0.16 0.14 0.11 0.08 0.08 0.08 0.07 0.07 0.05 0.03 0.02 0.01 0.02 0.01 0.00 0.00 0.00 0.00 0.00 0.00 0.00 0.00 0.00
0.44 0.28 0.15 0.07 0.05 0.07 0.07 0.04 0.02 0.02 0.01 0.00 0.01 0.01 0.03 0.05 0.06 0.05 0.07 0.09 0.10 0.14 0.15 0.17 0.17 0.16 0.20 0.25 0.26 0.23 0.20 0.16 0.15 0.12 0.08 0.07 0.06 0.04 0.03 0.02 0.02 0.01 0.01 0.01 0.00 0.00 0.01 0.00 0.00
0.26 0.12 0.08 0.06 0.04 0.05 0.04 0.01 0.01 0.01 0.01 0.00 0.00 0.00 0.01 0.02 0.03 0.03 0.04 0.07 0.09 0.14 0.19 0.18 0.18 0.20 0.29 0.38 0.40 0.37 0.33 0.25 0.22 0.18 0.15 0.14 0.11 0.09 0.07 0.05 0.03 0.02 0.01 0.01 0.01 0.01 0.01 0.01 0.01
0.22 0.14 0.08 0.04 0.04 0.05 0.03 0.01 0.01 0.01 0.01 0.01 0.00 0.00 0.00 0.01 0.01 0.02 0.03 0.06 0.08 0.11 0.14 0.16 0.18 0.20 0.25 0.28 0.28 0.27 0.27 0.30 0.31 0.28 0.28 0.25 0.20 0.17 0.13 0.09 0.07 0.05 0.04 0.03 0.03 0.03 0.03 0.03 0.02
0.34 0.27 0.15 0.08 0.05 0.07 0.04 0.01 0.01 0.01 0.01 0.01 0.00 0.00 0.00 0.00 0.01 0.01 0.02 0.03 0.05 0.08 0.09 0.12 0.14 0.19 0.20 0.21 0.27 0.31 0.38 0.44 0.45 0.41 0.34 0.30 0.28 0.26 0.20 0.14 0.13 0.12 0.09 0.06 0.06 0.07 0.06 0.05 0.05
0.41 0.30 0.22 0.13 0.08 0.08 0.08 0.05 0.01 0.00 0.00 0.00 0.01 0.00 0.00 0.00 0.00 0.01 0.02 0.03 0.03 0.05 0.06 0.08 0.11 0.14 0.17 0.22 0.33 0.40 0.44 0.40 0.38 0.32 0.28 0.29 0.31 0.32 0.29 0.25 0.22 0.19 0.17 0.12 0.12 0.14 0.14 0.15 0.15
0.45 0.23 0.24 0.23 0.21 0.16 0.10 0.08 0.01 0.00 0.00 0.00 0.00 0.00 0.00 0.00 0.00 0.00 0.01 0.01 0.02 0.04 0.06 0.08 0.10 0.11 0.13 0.18 0.19 0.23 0.27 0.26 0.26 0.31 0.35 0.38 0.37 0.36 0.34 0.33 0.30 0.28 0.25 0.22 0.24 0.28 0.29 0.28 0.24
0.43 0.25 0.27 0.31 0.33 0.28 0.14 0.09 0.02 0.00 0.00 0.00 0.00 0.00 0.00 0.00 0.00 0.00 0.00 0.01 0.01 0.03 0.05 0.06 0.07 0.08 0.10 0.13 0.14 0.18 0.20 0.23 0.27 0.29 0.31 0.33 0.33 0.33 0.34 0.35 0.36 0.35 0.33 0.35 0.39 0.40 0.40 0.39 0.37
0.49 0.49 0.52 0.51 0.61 0.55 0.16 0.09 0.03 0.00 0.00 0.00 0.00 0.00 0.00 0.00 0.00 0.00 0.00 0.00 0.00 0.01 0.02 0.04 0.05 0.05 0.06 0.09 0.11 0.14 0.16 0.21 0.23 0.24 0.25 0.28 0.31 0.30 0.30 0.32 0.35 0.38 0.40 0.41 0.45 0.49 0.52 0.53 0.53
0.75 1.03 1.32 1.17 0.92 0.41 0.09 0.08 0.03 0.00 0.00 0.00 0.00 0.00 0.00 0.00 0.00 0.00 0.00 0.00 0.00 0.01 0.01 0.02 0.04 0.05 0.05 0.07 0.08 0.10 0.13 0.19 0.20 0.22 0.24 0.26 0.26 0.23 0.26 0.32 0.36 0.41 0.45 0.49 0.50 0.50 0.51 0.56 0.61
0.72 0.88 1.02 0.77 0.39 0.14 0.06 0.04 0.01 0.00 0.00 0.00 0.00 0.00 0.00 0.00 0.00 0.00 0.00 0.00 0.00 0.00 0.00 0.01 0.02 0.03 0.04 0.06 0.07 0.07 0.08 0.12 0.14 0.17 0.18 0.21 0.23 0.27 0.31 0.34 0.37 0.39 0.41 0.44 0.45 0.47 0.49 0.55 0.60
0.68 0.66 0.56 0.65 0.39 0.18 0.07 0.02 0.00 0.00 0.00 0.00 0.00 0.00 0.00 0.00 0.00 0.00 0.00 0.00 0.00 0.00 0.00 0.01 0.01 0.02 0.04 0.05 0.06 0.06 0.06 0.07 0.10 0.11 0.12 0.15 0.18 0.21 0.24 0.28 0.30 0.31 0.33 0.35 0.38 0.40 0.41 0.44 0.48
0.60 0.53 0.67 0.92 0.66 0.32 0.08 0.01 0.00 0.00 0.00 0.00 0.00 0.00 0.00 0.00 0.00 0.00 0.00 0.00 0.00 0.00 0.01 0.01 0.01 0.02 0.04 0.05 0.05 0.05 0.05 0.06 0.08 0.09 0.08 0.09 0.12 0.14 0.17 0.19 0.21 0.23 0.24 0.24 0.26 0.26 0.26 0.29 0.32
0.54 0.65 0.75 0.74 0.49 0.39 0.19 0.04 0.01 0.01 0.01 0.01 0.00 0.00 0.00 0.00 0.00 0.00 0.00 0.00 0.00 0.01 0.01 0.02 0.02 0.03 0.04 0.05 0.05 0.05 0.05 0.06 0.07 0.07 0.08 0.09 0.10 0.10 0.11 0.13 0.15 0.15 0.15 0.15 0.15 0.16 0.16 0.18 0.22
0.43 0.40 0.51 0.74 0.51 0.32 0.24 0.08 0.02 0.02 0.02 0.02 0.02 0.02 0.01 0.01 0.00 0.00 0.00 0.00 0.01 0.02 0.02 0.03 0.03 0.04 0.04 0.04 0.05 0.06 0.06 0.06 0.07 0.07 0.07 0.07 0.08 0.08 0.08 0.08 0.09 0.10 0.10 0.10 0.10 0.10 0.11 0.13 0.15

GEFSSGP_prec_meanprecacc_102.txt.gz
Total_Precipitation_Accumulation
0.01 0.03 0.04 0.06 0.02 0.01 0.00 0.00 0.00 0.00 0.00 0.00 0.00 0.01 0.01 0.01 0.01 0.03 0.01 0.00 0.00 0.00 0.02 0.05 0.09 0.14 0.13 0.10 0.07 0.03 0.02 0.03 0.04 0.06 0.08 0.09 0.08 0.07 0.08 0.09 0.13 0.15 0.18 0.21 0.26 0.26 0.24 0.20 0.17
0.03 0.06 0.11 0.09 0.03 0.01 0.00 0.00 0.00 0.00 0.00 0.00 0.00 0.01 0.01 0.02 0.01 0.01 0.01 0.00 0.00 0.00 0.02 0.04 0.07 0.11 0.12 0.09 0.06 0.03 0.03 0.03 0.04 0.05 0.08 0.11 0.09 0.08 0.09 0.10 0.10 0.11 0.13 0.16 0.17 0.14 0.10 0.07 0.06
0.08 0.12 0.17 0.10 0.04 0.01 0.00 0.00 0.00 0.00 0.00 0.00 0.00 0.01 0.02 0.02 0.02 0.02 0.01 0.01 0.00 0.00 0.01 0.04 0.06 0.10 0.11 0.08 0.06 0.04 0.04 0.03 0.03 0.04 0.07 0.11 0.12 0.11 0.09 0.08 0.07 0.07 0.07 0.08 0.07 0.05 0.02 0.01 0.01
0.16 0.25 0.21 0.12 0.04 0.01 0.00 0.00 0.00 0.00 0.00 0.00 0.00 0.01 0.02 0.02 0.02 0.02 0.02 0.01 0.01 0.00 0.01 0.05 0.07 0.09 0.09 0.07 0.06 0.05 0.04 0.03 0.02 0.03 0.05 0.10 0.14 0.13 0.08 0.04 0.03 0.03 0.03 0.04 0.03 0.01 0.01 0.00 0.00
0.30 0.35 0.24 0.12 0.04 0.01 0.00 0.00 0.00 0.00 0.00 0.00 0.00 0.02 0.04 0.02 0.02 0.03 0.03 0.03 0.01 0.01 0.02 0.06 0.08 0.09 0.08 0.07 0.07 0.05 0.04 0.03 0.02 0.02 0.03 0.07 0.12 0.12 0.08 0.03 0.02 0.02 0.02 0.02 0.02 0.01 0.01 0.00 0.00
0.46 0.42 0.27 0.11 0.03 0.01 0.00 0.00 0.00 0.00 0.00 0.00 0.01 0.03 0.08 0.06 0.04 0.03 0.03 0.04 0.02 0.01 0.03 0.07 0.11 0.10 0.08 0.08 0.07 0.05 0.03 0.02 0.02 0.02 0.04 0.05 0.07 0.09 0.07 0.03 0.02 0.02 0.02 0.02 0.01 0.01 0.01 0.01 0.01
0.48 0.43 0.26 0.08 0.03 0.02 0.00 0.00 0.00 0.00 0.00 0.00 0.00 0.05 0.12 0.11 0.10 0.06 0.05 0.06 0.05 0.02 0.03 0.07 0.11 0.11 0.10 0.08 0.07 0.05 0.03 0.02 0.02 0.03 0.03 0.03 0.03 0.05 0.05 0.03 0.02 0.02 0.02 0.02 0.02 0.02 0.02 0.02 0.01
0.46 0.50 0.30 0.11 0.03 0.02 0.01 0.01 0.00 0.00 0.00 0.00 0.00 0.04 0.11 0.11 0.13 0.12 0.09 0.08 0.07 0.06 0.05 0.06 0.09 0.10 0.10 0.09 0.07 0.05 0.03 0.02 0.02 0.02 0.02 0.01 0.01 0.02 0.02 0.02 0.02 0.02 0.02 0.02 0.02 0.02 0.02 0.02 0.02
0.48 0.54 0.32 0.12 0.04 0.02 0.02 0.02 0.01 0.00 0.00 0.01 0.01 0.03 0.05 0.08 0.16 0.18 0.15 0.13 0.12 0.10 0.08 0.07 0.07 0.08 0.09 0.07 0.05 0.04 0.03 0.02 0.02 0.01 0.01 0.00 0.01 0.01 0.01 0.01 0.01 0.01 0.01 0.01 0.01 0.02 0.02 0.01 0.01
0.49 0.43 0.23 0.08 0.04 0.04 0.04 0.04 0.02 0.01 0.01 0.03 0.06 0.07 0.09 0.13 0.23 0.25 0.19 0.15 0.12 0.11 0.10 0.08 0.06 0.07 0.07 0.06 0.05 0.04 0.03 0.02 0.01 0.01 0.01 0.01 0.01 0.01 0.01 0.00 0.00 0.01 0.01 0.01 0.01 0.01 0.01 0.00 0.00
0.29 0.23 0.13 0.09 0.08 0.08 0.08 0.06 0.05 0.04 0.02 0.03 0.05 0.08 0.14 0.22 0.29 0.30 0.27 0.22 0.16 0.11 0.10 0.08 0.07 0.07 0.06 0.05 0.04 0.03 0.03 0.02 0.01 0.01 0.01 0.01 0.01 0.00 0.00 0.00 0.00 0.00 0.00 0.01 0.00 0.00 0.00 0.00 0.00
0.16 0.12 0.12 0.14 0.13 0.12 0.10 0.08 0.07 0.05 0.03 0.03 0.05 0.10 0.13 0.18 0.22 0.26 0.28 0.27 0.24 0.18 0.13 0.11 0.09 0.07 0.06 0.04 0.03 0.02 0.02 0.02 0.01 0.00 0.00 0.00 0.00 0.00 0.00 0.00 0.00 0.00 0.00 0.01 0.00 0.00 0.00 0.00 0.00
0.14 0.10 0.13 0.16 0.17 0.13 0.11 0.09 0.07 0.05 0.05 0.07 0.11 0.15 0.17 0.20 0.24 0.30 0.34 0.34 0.33 0.27 0.22 0.18 0.15 0.11 0.07 0.05 0.03 0.02 0.02 0.01 0.01 0.01 0.00 0.00 0.00 0.00 0.00 0.00 0.00 0.00 0.00 0.00 0.00 0.00 0.00 0.00 0.00
0.12 0.11 0.14 0.18 0.20 0.15 0.14 0.13 0.09 0.06 0.06 0.10 0.16 0.19 0.18 0.22 0.24 0.25 0.30 0.32 0.31 0.32 0.30 0.24 0.21 0.18 0.13 0.08 0.04 0.02 0.02 0.02 0.01 0.01 0.01 0.01 0.00 0.00 0.00 0.00 0.00 0.00 0.00 0.00 0.00 0.00 0.00 0.00 0.00
0.17 0.21 0.20 0.18 0.21 0.18 0.17 0.21 0.12 0.06 0.05 0.10 0.13 0.16 0.17 0.19 0.21 0.19 0.19 0.22 0.25 0.30 0.35 0.31 0.29 0.27 0.18 0.13 0.09 0.05 0.04 0.03 0.03 0.03 0.02 0.01 0.01 0.00 0.00 0.00 0.00 0.00 0.00 0.00 0.00 0.00 0.00 0.00 0.00
0.35 0.39 0.31 0.16 0.18 0.19 0.21 0.22 0.10 0.06 0.05 0.07 0.10 0.13 0.13 0.14 0.16 0.17 0.19 0.21 0.23 0.28 0.31 0.36 0.34 0.30 0.26 0.20 0.15 0.11 0.10 0.09 0.08 0.08 0.05 0.04 0.02 0.02 0.02 0.01 0.00 0.00 0.00 0.00 0.00 0.00 0.00 0.00 0.00
0.54 0.38 0.26 0.15 0.12 0.17 0.17 0.13 0.10 0.07 0.06 0.05 0.06 0.10 0.12 0.12 0.13 0.12 0.15 0.20 0.23 0.27 0.28 0.33 0.32 0.29 0.31 0.34 0.33 0.28 0.23 0.17 0.16 0.13 0.09 0.09 0.07 0.06 0.04 0.02 0.02 0.01 0.01 0.01 0.01 0.00 0.01 0.00 0.00
0.35 0.19 0.15 0.14 0.09 0.12 0.12 0.08 0.07 0.07 0.07 0.04 0.04 0.07 0.09 0.10 0.08 0.08 0.08 0.12 0.18 0.27 0.33 0.34 0.38 0.39 0.44 0.51 0.51 0.45 0.38 0.29 0.25 0.20 0.18 0.16 0.13 0.11 0.09 0.06 0.04 0.02 0.02 0.02 0.02 0.01 0.01 0.01 0.01
0.27 0.18 0.12 0.09 0.10 0.10 0.07 0.05 0.06 0.06 0.05 0.04 0.03 0.04 0.06 0.07 0.08 0.07 0.08 0.11 0.14 0.20 0.26 0.31 0.34 0.40 0.43 0.41 0.39 0.36 0.34 0.36 0.36 0.33 0.32 0.28 0.22 0.18 0.14 0.10 0.08 0.06 0.04 0.03 0.04 0.04 0.03 0.03 0.02
0.39 0.31 0.18 0.11 0.09 0.11 0.08 0.05 0.04 0.04 0.04 0.04 0.02 0.02 0.03 0.04 0.05 0.07 0.08 0.09 0.11 0.13 0.17 0.24 0.28 0.35 0.38 0.35 0.40 0.43 0.50 0.54 0.54 0.50 0.42 0.37 0.34 0.30 0.23 0.16 0.14 0.13 0.10 0.07 0.07 0.08 0.07 0.06 0.06
0.45 0.34 0.25 0.16 0.10 0.12 0.12 0.08 0.03 0.02 0.02 0.03 0.02 0.02 0.02 0.02 0.02 0.04 0.06 0.07 0.08 0.09 0.11 0.15 0.21 0.27 0.32 0.39 0.49 0.56 0.60 0.52 0.47 0.42 0.40 0.40 0.41 0.41 0.37 0.31 0.26 0.23 0.20 0.15 0.16 0.17 0.16 0.16 0.17
0.49 0.26 0.26 0.25 0.26 0.21 0.13 0.12 0.03 0.01 0.01 0.01 0.01 0.01 0.01 0.01 0.01 0.02 0.03 0.04 0.05 0.07 0.10 0.13 0.17 0.22 0.27 0.35 0.36 0.39 0.39 0.35 0.34 0.40 0.46 0.48 0.47 0.46 0.44 0.41 0.37 0.34 0.30 0.27 0.29 0.32 0.33 0.33 0.29
0.46 0.28 0.29 0.34 0.38 0.33 0.17 0.12 0.03 0.01 0.00 0.00 0.00 0.00 0.01 0.01 0.01 0.01 0.02 0.03 0.04 0.06 0.09 0.11 0.14 0.19 0.25 0.29 0.32 0.35 0.33 0.34 0.37 0.40 0.41 0.42 0.42 0.42 0.43 0.43 0.44 0.43 0.41 0.42 0.45 0.45 0.45 0.43 0.40
0.53 0.52 0.55 0.56 0.68 0.61 0.18 0.11 0.03 0.00 0.00 0.00 0.00 0.00 0.00 0.00 0.01 0.01 0.02 0.02 0.03 0.04 0.06 0.08 0.11 0.13 0.17 0.23 0.28 0.29 0.32 0.35 0.36 0.36 0.36 0.37 0.40 0.40 0.39 0.41 0.44 0.47 0.47 0.48 0.50 0.53 0.56 0.57 0.55
0.80 1.08 1.39 1.26 1.00 0.45 0.10 0.09 0.03 0.00 0.00 0.00 0.00 0.00 0.00 0.00 0.00 0.01 0.01 0.01 0.01 0.02 0.04 0.06 0.08 0.09 0.12 0.17 0.21 0.23 0.28 0.33 0.32 0.33 0.34 0.34 0.32 0.29 0.31 0.37 0.41 0.46 0.50 0.53 0.55 0.55 0.56 0.61 0.65
0.77 0.91 1.06 0.82 0.43 0.15 0.07 0.06 0.01 0.00 0.00 0.00 0.00 0.00 0.00 0.00 0.00 0.00 0.00 0.00 0.01 0.01 0.02 0.04 0.05 0.07 0.11 0.13 0.14 0.16 0.19 0.24 0.25 0.27 0.27 0.29 0.29 0.32 0.35 0.38 0.40 0.42 0.44 0.46 0.48 0.50 0.52 0.58 0.63
0.71 0.68 0.58 0.68 0.42 0.20 0.08 0.03 0.01 0.00 0.00 0.00 0.00 0.00 0.00 0.00 0.00 0.00 0.00 0.00 0.00 0.01 0.01 0.02 0.03 0.06 0.08 0.10 0.13 0.13 0.13 0.15 0.18 0.21 0.23 0.24 0.26 0.28 0.31 0.33 0.34 0.34 0.36 0.37 0.40 0.42 0.43 0.47 0.50
0.62 0.55 0.69 0.96 0.72 0.35 0.10 0.02 0.00 0.00 0.00 0.00 0.00 0.00 0.00 0.00 0.00 0.00 0.00 0.00 0.00 0.01 0.01 0.02 0.03 0.05 0.07 0.09 0.10 0.10 0.10 0.12 0.15 0.16 0.15 0.16 0.19 0.21 0.23 0.25 0.25 0.26 0.26 0.27 0.28 0.29 0.29 0.31 0.34
0.57 0.68 0.79 0.79 0.55 0.44 0.24 0.07 0.02 0.01 0.01 0.01 0.00 0.00 0.00 0.00 0.00 0.00 0.00 0.00 0.01 0.01 0.02 0.02 0.03 0.04 0.05 0.07 0.08 0.09 0.09 0.10 0.11 0.12 0.12 0.13 0.15 0.16 0.16 0.17 0.19 0.19 0.18 0.18 0.18 0.18 0.19 0.21 0.24
0.45 0.42 0.56 0.81 0.60 0.39 0.30 0.14 0.05 0.03 0.02 0.02 0.02 0.02 0.01 0.01 0.00 0.00 0.00 0.00 0.01 0.02 0.02 0.03 0.03 0.05 0.06 0.07 0.08 0.09 0.11 0.12 0.12 0.12 0.12 0.12 0.12 0.11 0.11 0.11 0.12 0.12 0.12 0.12 0.12 0.12 0.13 0.15 0.17

GEFSSGP_prec_meanprecacc_108.txt.gz
Total_Precipitation_Accumulation
0.05 0.06 0.09 0.11 0.07 0.04 0.02 0.00 0.00 0.00 0.00 0.00 0.01 0.01 0.01 0.01 0.01 0.03 0.01 0.00 0.00 0.01 0.03 0.07 0.10 0.14 0.14 0.10 0.07 0.03 0.03 0.04 0.05 0.07 0.09 0.11 0.10 0.10 0.11 0.12 0.15 0.17 0.19 0.22 0.27 0.27 0.25 0.21 0.18
0.07 0.11 0.19 0.18 0.09 0.04 0.01 0.00 0.00 0.00 0.01 0.01 0.01 0.01 0.02 0.02 0.01 0.02 0.02 0.01 0.00 0.00 0.02 0.05 0.08 0.12 0.12 0.09 0.06 0.04 0.03 0.04 0.05 0.06 0.10 0.13 0.11 0.11 0.12 0.12 0.12 0.13 0.14 0.16 0.18 0.14 0.10 0.07 0.06
0.14 0.20 0.30 0.20 0.09 0.04 0.01 0.00 0.00 0.00 0.00 0.01 0.01 0.01 0.02 0.03 0.02 0.02 0.02 0.01 0.00 0.01 0.02 0.05 0.07 0.10 0.11 0.09 0.07 0.05 0.04 0.04 0.04 0.05 0.09 0.13 0.14 0.12 0.10 0.09 0.08 0.07 0.08 0.09 0.08 0.05 0.02 0.02 0.02
0.25 0.37 0.35 0.23 0.10 0.03 0.01 0.00 0.00 0.00 0.00 0.01 0.01 0.02 0.04 0.04 0.03 0.02 0.02 0.02 0.01 0.01 0.02 0.06 0.07 0.09 0.09 0.08 0.06 0.05 0.04 0.04 0.03 0.05 0.07 0.11 0.15 0.14 0.09 0.05 0.04 0.03 0.04 0.04 0.04 0.01 0.01 0.01 0.00
0.40 0.50 0.38 0.25 0.11 0.02 0.00 0.00 0.00 0.00 0.00 0.01 0.02 0.04 0.06 0.06 0.05 0.04 0.04 0.03 0.02 0.02 0.03 0.07 0.09 0.09 0.08 0.08 0.07 0.06 0.04 0.03 0.03 0.04 0.05 0.08 0.13 0.13 0.08 0.03 0.02 0.02 0.02 0.03 0.02 0.01 0.01 0.00 0.00
0.59 0.59 0.45 0.25 0.10 0.03 0.00 0.00 0.00 0.00 0.00 0.01 0.03 0.06 0.12 0.10 0.09 0.07 0.06 0.05 0.03 0.02 0.04 0.08 0.11 0.10 0.09 0.08 0.07 0.05 0.04 0.03 0.03 0.03 0.04 0.06 0.08 0.09 0.07 0.03 0.02 0.02 0.02 0.02 0.01 0.01 0.01 0.01 0.01
0.61 0.60 0.43 0.19 0.07 0.03 0.01 0.00 0.01 0.01 0.00 0.01 0.03 0.08 0.18 0.18 0.20 0.14 0.10 0.09 0.06 0.04 0.05 0.09 0.12 0.12 0.11 0.09 0.07 0.06 0.04 0.03 0.03 0.03 0.04 0.04 0.03 0.05 0.05 0.03 0.03 0.03 0.02 0.02 0.02 0.02 0.02 0.02 0.01
0.62 0.68 0.44 0.19 0.07 0.04 0.01 0.01 0.01 0.01 0.01 0.01 0.03 0.08 0.16 0.19 0.25 0.24 0.18 0.13 0.10 0.09 0.08 0.08 0.10 0.11 0.11 0.09 0.07 0.05 0.04 0.03 0.03 0.02 0.02 0.01 0.01 0.02 0.03 0.02 0.02 0.02 0.02 0.02 0.02 0.02 0.02 0.02 0.02
0.65 0.72 0.45 0.19 0.07 0.04 0.03 0.04 0.02 0.02 0.02 0.03 0.04 0.07 0.13 0.18 0.29 0.34 0.28 0.21 0.18 0.15 0.12 0.09 0.09 0.10 0.09 0.08 0.06 0.05 0.03 0.02 0.02 0.02 0.01 0.00 0.01 0.01 0.01 0.01 0.01 0.01 0.01 0.01 0.01 0.02 0.02 0.01 0.01
0.67 0.61 0.34 0.15 0.09 0.09 0.07 0.07 0.05 0.04 0.04 0.08 0.11 0.15 0.22 0.26 0.37 0.40 0.31 0.23 0.17 0.16 0.14 0.10 0.08 0.08 0.08 0.07 0.06 0.05 0.03 0.02 0.01 0.01 0.01 0.01 0.01 0.01 0.01 0.00 0.00 0.01 0.01 0.01 0.01 0.01 0.01 0.00 0.00
0.44 0.37 0.26 0.19 0.16 0.16 0.13 0.11 0.09 0.08 0.06 0.06 0.10 0.16 0.28 0.36 0.45 0.45 0.42 0.34 0.23 0.15 0.13 0.11 0.09 0.08 0.07 0.06 0.05 0.04 0.03 0.02 0.01 0.01 0.01 0.01 0.01 0.01 0.00 0.00 0.00 0.00 0.00 0.01 0.00 0.00 0.00 0.00 0.00
0.27 0.23 0.25 0.26 0.21 0.20 0.18 0.14 0.13 0.09 0.06 0.06 0.10 0.18 0.26 0.32 0.39 0.41 0.42 0.40 0.36 0.26 0.17 0.13 0.11 0.09 0.07 0.05 0.03 0.03 0.02 0.02 0.01 0.01 0.00 0.00 0.00 0.00 0.00 0.00 0.00 0.00 0.00 0.01 0.00 0.00 0.00 0.00 0.00
0.22 0.19 0.23 0.29 0.26 0.21 0.18 0.16 0.14 0.10 0.08 0.11 0.18 0.26 0.31 0.36 0.42 0.50 0.52 0.51 0.48 0.39 0.28 0.22 0.18 0.13 0.08 0.06 0.03 0.02 0.02 0.01 0.01 0.01 0.00 0.00 0.00 0.00 0.00 0.00 0.00 0.00 0.00 0.00 0.00 0.00 0.00 0.00 0.00
0.17 0.19 0.25 0.29 0.28 0.22 0.21 0.18 0.14 0.10 0.11 0.17 0.26 0.31 0.33 0.41 0.45 0.48 0.51 0.55 0.50 0.47 0.42 0.32 0.26 0.22 0.15 0.09 0.04 0.03 0.02 0.02 0.02 0.01 0.01 0.01 0.00 0.00 0.00 0.00 0.00 0.00 0.00 0.00 0.00 0.00 0.00 0.00 0.00
0.21 0.27 0.30 0.31 0.32 0.25 0.24 0.26 0.16 0.10 0.12 0.17 0.22 0.27 0.30 0.38 0.43 0.42 0.39 0.43 0.46 0.49 0.54 0.47 0.39 0.34 0.22 0.15 0.10 0.06 0.04 0.03 0.03 0.03 0.02 0.01 0.01 0.00 0.00 0.00 0.00 0.00 0.00 0.00 0.00 0.00 0.00 0.00 0.00
0.40 0.44 0.40 0.28 0.31 0.27 0.28 0.29 0.14 0.09 0.11 0.13 0.16 0.21 0.24 0.30 0.38 0.39 0.39 0.41 0.45 0.53 0.57 0.61 0.51 0.42 0.34 0.25 0.18 0.13 0.10 0.09 0.08 0.08 0.06 0.04 0.03 0.02 0.02 0.01 0.00 0.00 0.00 0.00 0.00 0.00 0.00 0.00 0.00
0.60 0.42 0.31 0.24 0.24 0.28 0.25 0.21 0.14 0.10 0.10 0.10 0.11 0.15 0.19 0.23 0.32 0.32 0.35 0.39 0.44 0.51 0.55 0.64 0.58 0.47 0.42 0.42 0.39 0.32 0.26 0.19 0.17 0.14 0.10 0.09 0.08 0.06 0.04 0.02 0.02 0.01 0.01 0.01 0.01 0.01 0.01 0.00 0.00
0.42 0.23 0.19 0.20 0.18 0.22 0.20 0.13 0.13 0.10 0.09 0.07 0.07 0.10 0.15 0.17 0.21 0.24 0.26 0.34 0.42 0.50 0.58 0.64 0.71 0.67 0.65 0.71 0.67 0.55 0.44 0.33 0.30 0.25 0.21 0.19 0.15 0.13 0.10 0.08 0.06 0.04 0.03 0.02 0.02 0.02 0.01 0.01 0.01
0.32 0.23 0.16 0.13 0.16 0.18 0.14 0.09 0.10 0.10 0.07 0.06 0.06 0.07 0.10 0.13 0.16 0.19 0.24 0.30 0.41 0.46 0.52 0.59 0.67 0.75 0.72 0.65 0.59 0.49 0.42 0.45 0.46 0.43 0.41 0.35 0.29 0.24 0.18 0.14 0.12 0.08 0.06 0.05 0.05 0.04 0.03 0.03 0.02
0.44 0.36 0.23 0.13 0.12 0.17 0.13 0.08 0.08 0.08 0.06 0.05 0.05 0.04 0.06 0.09 0.12 0.15 0.20 0.25 0.31 0.36 0.39 0.49 0.57 0.68 0.70 0.61 0.63 0.63 0.67 0.69 0.67 0.63 0.52 0.46 0.41 0.35 0.27 0.20 0.18 0.16 0.12 0.09 0.09 0.10 0.08 0.06 0.06
0.48 0.37 0.29 0.19 0.14 0.16 0.17 0.12 0.06 0.05 0.04 0.03 0.04 0.04 0.04 0.06 0.07 0.10 0.13 0.15 0.20 0.26 0.31 0.33 0.42 0.54 0.62 0.72 0.87 0.92 0.89 0.75 0.64 0.55 0.53 0.52 0.51 0.48 0.43 0.36 0.32 0.27 0.23 0.18 0.19 0.19 0.18 0.19 0.20
0.51 0.28 0.29 0.29 0.30 0.26 0.17 0.16 0.05 0.02 0.02 0.02 0.02 0.03 0.03 0.04 0.05 0.07 0.09 0.09 0.11 0.16 0.24 0.30 0.36 0.45 0.53 0.68 0.75 0.76 0.68 0.56 0.50 0.57 0.62 0.63 0.60 0.58 0.54 0.50 0.46 0.41 0.36 0.33 0.34 0.36 0.38 0.38 0.34
0.48 0.30 0.31 0.37 0.41 0.38 0.20 0.13 0.04 0.01 0.01 0.01 0.01 0.01 0.01 0.02 0.03 0.05 0.07 0.08 0.08 0.11 0.17 0.23 0.32 0.40 0.50 0.58 0.63 0.71 0.66 0.58 0.60 0.63 0.59 0.57 0.57 0.57 0.57 0.55 0.54 0.53 0.51 0.51 0.53 0.52 0.52 0.50 0.46
0.55 0.54 0.57 0.58 0.71 0.65 0.21 0.12 0.04 0.01 0.00 0.00 0.00 0.00 0.01 0.01 0.02 0.03 0.06 0.08 0.09 0.11 0.13 0.18 0.24 0.30 0.37 0.45 0.53 0.57 0.62 0.66 0.67 0.63 0.60 0.58 0.60 0.59 0.56 0.57 0.57 0.60 0.58 0.57 0.59 0.61 0.62 0.62 0.61
0.83 1.12 1.43 1.32 1.06 0.49 0.11 0.10 0.04 0.00 0.00 0.00 0.00 0.00 0.00 0.01 0.01 0.02 0.04 0.06 0.07 0.09 0.10 0.13 0.16 0.18 0.25 0.33 0.39 0.44 0.54 0.63 0.62 0.63 0.62 0.60 0.55 0.48 0.48 0.53 0.56 0.59 0.61 0.63 0.64 0.64 0.64 0.69 0.73
0.80 0.96 1.10 0.85 0.47 0.18 0.08 0.06 0.01 0.00 0.00 0.00 0.00 0.00 0.00 0.00 0.01 0.01 0.02 0.03 0.05 0.07 0.07 0.09 0.11 0.14 0.20 0.25 0.30 0.34 0.40 0.50 0.51 0.53 0.51 0.50 0.50 0.51 0.53 0.53 0.53 0.53 0.53 0.53 0.54 0.55 0.55 0.61 0.66
0.74 0.71 0.60 0.72 0.45 0.22 0.09 0.03 0.01 0.00 0.00 0.00 0.00 0.00 0.00 0.00 0.00 0.01 0.01 0.02 0.03 0.04 0.05 0.06 0.08 0.12 0.16 0.19 0.26 0.28 0.29 0.31 0.37 0.44 0.45 0.41 0.41 0.44 0.46 0.47 0.46 0.44 0.43 0.43 0.45 0.46 0.47 0.49 0.53
0.64 0.57 0.71 1.00 0.76 0.38 0.11 0.03 0.01 0.00 0.00 0.00 0.00 0.00 0.00 0.00 0.00 0.00 0.01 0.01 0.01 0.02 0.03 0.05 0.07 0.09 0.13 0.16 0.19 0.21 0.22 0.24 0.27 0.31 0.32 0.30 0.31 0.34 0.36 0.37 0.36 0.35 0.34 0.34 0.34 0.32 0.32 0.34 0.36
0.58 0.71 0.82 0.82 0.59 0.47 0.27 0.09 0.03 0.01 0.01 0.01 0.00 0.00 0.00 0.00 0.00 0.00 0.01 0.01 0.01 0.02 0.03 0.03 0.05 0.07 0.09 0.12 0.14 0.16 0.16 0.18 0.20 0.21 0.23 0.26 0.27 0.27 0.28 0.28 0.28 0.27 0.26 0.25 0.24 0.22 0.22 0.24 0.27
0.46 0.44 0.60 0.86 0.63 0.42 0.33 0.18 0.06 0.03 0.03 0.03 0.02 0.02 0.01 0.01 0.00 0.00 0.01 0.01 0.02 0.03 0.03 0.03 0.04 0.06 0.08 0.10 0.12 0.14 0.16 0.17 0.17 0.17 0.18 0.20 0.22 0.21 0.21 0.21 0.21 0.21 0.21 0.19 0.19 0.19 0.20 0.21 0.21